FDX14 RJBB-KIND

Flight info

Callsign FDX14
Flight time 9h 34m
Altitude 29000
Route KEC Y43 ISEBI Y81 TASOT Y57 POROT Y809 IDLAN Y812 ADNAP R591 ADGOR AGEDI AKISU/N0492F310 DCT ASPIN DCT AAMYY DCT AMOND DCT CRYPT DCT 56N160W 55N150W/N0483F330 54N140W DCT KATCH DCT YZP DCT DUGGS DCT 52N120W DCT DESNU DCT PEMDU/N0486F350 DCT KU18W DCT KP06C DCT KP81I DCT BRBIE JAKKS2
Aircraft B77L/H-SDE1E2E3FGHIJ2J3J4J5M1RWXY/LB1D1

Departure

Time 2026-04-27 19:47
Airport Kansai International Airport (RJBB)

Arrival

Time 2026-04-28 05:21
Airport Indianapolis International Airport (KIND)
Time Latitude Longitude Altitude Speed Heading
2026-04-27 19:38 34.43444 135.22503 27 ft 1 kts 233°
2026-04-27 19:39 34.43449 135.22512 27 ft 4 kts 228°
2026-04-27 19:39 34.43459 135.22530 27 ft 4 kts 254°
2026-04-27 19:39 34.43461 135.22561 26 ft 4 kts 276°
2026-04-27 19:39 34.43459 135.22575 27 ft 1 kts 275°
2026-04-27 19:42 34.43465 135.22568 27 ft 3 kts 313°
2026-04-27 19:42 34.43501 135.22556 27 ft 12 kts 356°
2026-04-27 19:42 34.43596 135.22577 27 ft 14 kts 350°
2026-04-27 19:43 34.43677 135.22509 26 ft 14 kts 321°
2026-04-27 19:43 34.43754 135.22435 28 ft 14 kts 321°
2026-04-27 19:43 34.43769 135.22332 27 ft 14 kts 238°
2026-04-27 19:43 34.43710 135.22233 28 ft 14 kts 230°
2026-04-27 19:44 34.43618 135.22098 28 ft 27 kts 231°
2026-04-27 19:44 34.43499 135.21921 27 ft 27 kts 231°
2026-04-27 19:44 34.43382 135.21743 28 ft 27 kts 230°
2026-04-27 19:44 34.43260 135.21558 28 ft 27 kts 231°
2026-04-27 19:45 34.43146 135.21388 28 ft 26 kts 231°
2026-04-27 19:45 34.43030 135.21219 27 ft 26 kts 230°
2026-04-27 19:45 34.42915 135.21050 27 ft 26 kts 231°
2026-04-27 19:45 34.42802 135.20882 26 ft 26 kts 230°
2026-04-27 19:46 34.42760 135.20741 28 ft 15 kts 299°
2026-04-27 19:46 34.42839 135.20657 28 ft 15 kts 323°
2026-04-27 19:46 34.42914 135.20693 30 ft 13 kts 53°
2026-04-27 19:46 34.43016 135.20849 26 ft 51 kts 51°
2026-04-27 19:47 34.43407 135.21429 30 ft 126 kts 51°
2026-04-27 19:47 34.44110 135.22475 32 ft 193 kts 50°
2026-04-27 19:47 34.45013 135.23848 327 ft 215 kts 52°
2026-04-27 19:47 34.45913 135.25305 986 ft 218 kts 51°
2026-04-27 19:48 34.47088 135.26434 1265 ft 220 kts 16°
2026-04-27 19:48 34.48590 135.26425 1384 ft 220 kts 333°
2026-04-27 19:48 34.49681 135.25220 1500 ft 214 kts 289°
2026-04-27 19:48 34.49794 135.23486 1608 ft 210 kts 249°
2026-04-27 19:49 34.49262 135.21823 1697 ft 217 kts 257°
2026-04-27 19:49 34.49294 135.19956 1792 ft 228 kts 274°
2026-04-27 19:49 34.49118 135.18052 1858 ft 232 kts 239°
2026-04-27 19:49 34.47224 135.15797 2255 ft 239 kts 223°
2026-04-27 19:50 34.43414 135.08950 3709 ft 258 kts 236°
2026-04-27 19:50 34.37623 135.03934 5444 ft 273 kts 197°
2026-04-27 19:50 34.30162 135.01333 7238 ft 283 kts 198°
2026-04-27 19:50 34.22216 135.06103 8805 ft 310 kts 144°
2026-04-27 19:51 34.08063 135.19682 11934 ft 345 kts 146°
2026-04-27 19:51 33.91869 135.35057 15264 ft 397 kts 147°
2026-04-27 19:51 33.73467 135.52472 18666 ft 440 kts 147°
2026-04-27 19:51 33.53495 135.71259 21640 ft 471 kts 148°
2026-04-27 19:52 33.40424 135.99151 24236 ft 547 kts 88°
2026-04-27 19:52 33.47351 136.23156 26465 ft 522 kts 72°
2026-04-27 19:52 33.48198 136.27428 26526 ft 532 kts 79°
2026-04-27 19:52 33.49338 136.35725 26680 ft 547 kts 79°
2026-04-27 19:53 33.78441 137.67361 31342 ft 597 kts 73°
2026-04-27 19:53 33.95303 138.45172 31115 ft 600 kts 73°
2026-04-27 19:53 34.11397 139.22399 30697 ft 587 kts 73°
2026-04-27 19:54 34.40717 139.82970 30733 ft 530 kts 53°
2026-04-27 19:54 34.70503 140.46133 32116 ft 559 kts 53°
2026-04-27 19:54 35.01663 141.14896 31675 ft 600 kts 55°
2026-04-27 19:54 35.33833 141.86497 30751 ft 593 kts 56°
2026-04-27 19:55 35.64485 142.56354 30476 ft 569 kts 57°
2026-04-27 19:55 35.95323 143.22293 30434 ft 536 kts 48°
2026-04-27 19:55 36.29014 143.86065 31453 ft 568 kts 52°
2026-04-27 19:55 36.63960 144.54283 31492 ft 602 kts 52°
2026-04-27 19:56 36.99777 145.25901 31006 ft 610 kts 52°
2026-04-27 19:56 37.37151 145.89831 29159 ft 487 kts 26°
2026-04-27 19:56 37.80775 146.38054 31920 ft 549 kts 36°
2026-04-27 19:56 38.25979 146.91743 31670 ft 586 kts 36°
2026-04-27 19:57 38.72711 147.48780 30737 ft 568 kts 38°
2026-04-27 19:57 39.16627 148.03261 30328 ft 529 kts 40°
2026-04-27 19:57 39.57702 148.55058 30580 ft 505 kts 42°
2026-04-27 19:57 39.97918 149.06798 30866 ft 514 kts 42°
2026-04-27 19:58 40.39003 149.60492 30962 ft 531 kts 43°
2026-04-27 19:58 40.80882 150.16472 30686 ft 538 kts 44°
2026-04-27 19:58 41.22160 150.72672 30416 ft 541 kts 46°
2026-04-27 19:58 41.63645 151.30432 30542 ft 541 kts 46°
2026-04-27 19:59 42.04675 151.88588 30210 ft 529 kts 47°
2026-04-27 19:59 42.44322 152.46010 30260 ft 520 kts 47°
2026-04-27 19:59 42.83671 153.04042 30544 ft 528 kts 49°
2026-04-27 19:59 43.23674 153.64384 30725 ft 543 kts 49°
2026-04-27 20:00 43.64341 154.26988 30828 ft 549 kts 49°
2026-04-27 20:00 44.04946 154.90918 30477 ft 552 kts 50°
2026-04-27 20:00 44.83329 156.21997 30715 ft 555 kts 51°
2026-04-27 20:01 45.22372 156.89952 30875 ft 558 kts 51°
2026-04-27 20:01 45.61257 157.59362 30967 ft 560 kts 51°
2026-04-27 20:01 46.37631 159.00801 30781 ft 553 kts 51°
2026-04-27 20:02 46.69069 159.61093 30837 ft 551 kts 51°
2026-04-27 20:02 46.73668 159.70028 30953 ft 558 kts 51°
2026-04-27 20:03 46.78335 159.79132 30956 ft 561 kts 51°
2026-04-27 20:03 46.83005 159.88272 30951 ft 561 kts 52°
2026-04-27 20:04 46.87661 159.97413 30982 ft 560 kts 52°
2026-04-27 20:04 46.92304 160.06558 30961 ft 559 kts 52°
2026-04-27 20:05 46.96899 160.15635 30963 ft 558 kts 52°
2026-04-27 20:05 47.01506 160.24768 30961 ft 557 kts 52°
2026-04-27 20:06 47.06096 160.33898 30962 ft 556 kts 52°
2026-04-27 20:06 47.10679 160.43044 30970 ft 556 kts 52°
2026-04-27 20:07 47.15231 160.52154 30976 ft 557 kts 52°
2026-04-27 20:07 47.19809 160.61351 30978 ft 558 kts 52°
2026-04-27 20:08 47.24393 160.70591 30984 ft 560 kts 51°
2026-04-27 20:08 47.28979 160.79865 30993 ft 561 kts 52°
2026-04-27 20:09 47.33561 160.89162 30989 ft 561 kts 52°
2026-04-27 20:09 47.38111 160.98426 30994 ft 561 kts 51°
2026-04-27 20:10 47.42683 161.07768 31002 ft 561 kts 51°
2026-04-27 20:10 47.47248 161.17124 31003 ft 561 kts 52°
2026-04-27 20:11 47.51806 161.26500 31004 ft 561 kts 52°
2026-04-27 20:11 47.56314 161.35823 31045 ft 561 kts 52°
2026-04-27 20:12 47.60773 161.45332 31022 ft 562 kts 53°
2026-04-27 20:12 47.65184 161.54898 31018 ft 562 kts 53°
2026-04-27 20:13 47.69589 161.64456 31020 ft 561 kts 52°
2026-04-27 20:13 47.74000 161.74020 31030 ft 561 kts 52°
2026-04-27 20:14 47.78379 161.83536 31030 ft 561 kts 52°
2026-04-27 20:14 47.82780 161.93134 31030 ft 562 kts 52°
2026-04-27 20:15 47.87173 162.02754 31042 ft 562 kts 52°
2026-04-27 20:15 47.91566 162.12408 31042 ft 563 kts 52°
2026-04-27 20:16 47.95924 162.22016 31041 ft 563 kts 52°
2026-04-27 20:16 48.00300 162.31702 31047 ft 563 kts 52°
2026-04-27 20:17 48.04674 162.41416 31046 ft 563 kts 52°
2026-04-27 20:17 48.08303 162.49502 31044 ft 564 kts 52°
2026-04-27 20:18 48.13400 162.60901 31053 ft 564 kts 52°
2026-04-27 20:18 48.17719 162.70597 31055 ft 564 kts 52°
2026-04-27 20:19 48.22062 162.80382 31062 ft 564 kts 52°
2026-04-27 20:19 48.26399 162.90188 31065 ft 565 kts 52°
2026-04-27 20:20 48.30732 163.00020 31062 ft 564 kts 52°
2026-04-27 20:20 48.35024 163.09796 31062 ft 564 kts 52°
2026-04-27 20:21 48.39337 163.19655 31062 ft 564 kts 52°
2026-04-27 20:21 48.43637 163.29521 31063 ft 564 kts 52°
2026-04-27 20:22 48.47931 163.39409 31068 ft 564 kts 52°
2026-04-27 20:22 48.52214 163.49308 31062 ft 564 kts 52°
2026-04-27 20:23 48.56461 163.59157 31068 ft 564 kts 52°
2026-04-27 20:23 48.60731 163.69098 31073 ft 564 kts 52°
2026-04-27 20:24 48.64993 163.79061 31074 ft 564 kts 52°
2026-04-27 20:24 48.69249 163.89043 31066 ft 564 kts 52°
2026-04-27 20:25 48.73466 163.98967 31071 ft 564 kts 52°
2026-04-27 20:25 48.77702 164.08978 31068 ft 564 kts 52°
2026-04-27 20:26 48.81925 164.19002 31074 ft 564 kts 51°
2026-04-27 20:26 48.86143 164.29037 31071 ft 564 kts 52°
2026-04-27 20:27 48.90348 164.39081 31071 ft 563 kts 52°
2026-04-27 20:27 48.94518 164.49085 31095 ft 564 kts 51°
2026-04-27 20:28 48.98713 164.59182 31079 ft 565 kts 51°
2026-04-27 20:28 49.02192 164.67591 31073 ft 565 kts 51°
2026-04-27 20:29 49.07075 164.79435 31071 ft 564 kts 51°
2026-04-27 20:29 49.11212 164.89513 31075 ft 564 kts 51°
2026-04-27 20:30 49.15371 164.99677 31070 ft 564 kts 51°
2026-04-27 20:30 49.19517 165.09848 31071 ft 564 kts 51°
2026-04-27 20:31 49.23652 165.20035 31073 ft 564 kts 51°
2026-04-27 20:31 49.27755 165.30184 31070 ft 565 kts 51°
2026-04-27 20:32 49.31882 165.40424 31065 ft 565 kts 51°
2026-04-27 20:32 49.35995 165.50674 31068 ft 564 kts 51°
2026-04-27 20:33 49.40100 165.60945 31081 ft 564 kts 51°
2026-04-27 20:33 49.44168 165.71162 31069 ft 564 kts 51°
2026-04-27 20:34 49.48251 165.81455 31065 ft 564 kts 51°
2026-04-27 20:34 49.52323 165.91762 31065 ft 564 kts 51°
2026-04-27 20:35 49.56384 166.02086 31079 ft 564 kts 50°
2026-04-27 20:35 49.60440 166.12429 31060 ft 564 kts 51°
2026-04-27 20:36 49.64456 166.22713 31066 ft 563 kts 51°
2026-04-27 20:36 49.68420 166.33146 31063 ft 565 kts 52°
2026-04-27 20:37 49.70340 166.38429 30080 ft 558 kts 60°
2026-04-27 20:37 49.72178 166.43555 30358 ft 535 kts 61°
2026-04-27 20:37 49.73954 166.48542 30583 ft 525 kts 61°
2026-04-27 20:37 49.75703 166.53449 30772 ft 518 kts 61°
2026-04-27 20:38 49.77439 166.58307 30900 ft 513 kts 61°
2026-04-27 20:38 49.79165 166.63124 30958 ft 510 kts 61°
2026-04-27 20:38 49.82575 166.72624 30991 ft 507 kts 61°
2026-04-27 20:39 49.85982 166.82140 30995 ft 504 kts 61°
2026-04-27 20:39 49.89360 166.91614 30997 ft 501 kts 61°
2026-04-27 20:40 49.92712 167.01054 30997 ft 498 kts 61°
2026-04-27 20:40 49.96016 167.10395 30997 ft 496 kts 61°
2026-04-27 20:41 49.99316 167.19761 30998 ft 493 kts 61°
2026-04-27 20:41 50.02597 167.29105 30998 ft 491 kts 61°
2026-04-27 20:42 50.05852 167.38408 30998 ft 489 kts 62°
2026-04-27 20:42 50.09090 167.47697 30998 ft 487 kts 62°
2026-04-27 20:43 50.12285 167.56895 30999 ft 485 kts 62°
2026-04-27 20:43 50.15479 167.66123 30999 ft 483 kts 62°
2026-04-27 20:44 50.18661 167.75352 30999 ft 482 kts 62°
2026-04-27 20:44 50.21824 167.84555 30999 ft 480 kts 62°
2026-04-27 20:45 50.24945 167.93673 30999 ft 479 kts 62°
2026-04-27 20:45 50.28073 168.02843 31000 ft 477 kts 62°
2026-04-27 20:46 50.31185 168.11998 31000 ft 476 kts 62°
2026-04-27 20:46 50.34280 168.21138 31000 ft 475 kts 62°
2026-04-27 20:47 50.37340 168.30206 31000 ft 473 kts 62°
2026-04-27 20:47 50.40405 168.39324 31000 ft 472 kts 62°
2026-04-27 20:48 50.42942 168.46893 31000 ft 471 kts 62°
2026-04-27 20:48 50.46494 168.57532 31000 ft 470 kts 62°
2026-04-27 20:49 50.49517 168.66620 31000 ft 469 kts 63°
2026-04-27 20:49 50.52506 168.75641 31000 ft 468 kts 63°
2026-04-27 20:50 50.55505 168.84721 31000 ft 467 kts 63°
2026-04-27 20:50 50.58489 168.93793 31000 ft 467 kts 63°
2026-04-27 20:51 50.61463 169.02865 31001 ft 466 kts 63°
2026-04-27 20:51 50.64407 169.11878 31000 ft 466 kts 63°
2026-04-27 20:52 50.67360 169.20952 31001 ft 465 kts 63°
2026-04-27 20:52 50.70304 169.30030 31001 ft 465 kts 63°
2026-04-27 20:53 50.73239 169.39116 31001 ft 464 kts 63°
2026-04-27 20:53 50.76163 169.48198 31001 ft 464 kts 63°
2026-04-27 20:54 50.80512 169.61773 31001 ft 463 kts 63°
2026-04-27 20:55 50.83415 169.70874 31001 ft 463 kts 63°
2026-04-27 20:55 50.86310 169.79982 31001 ft 463 kts 63°
2026-04-27 20:56 50.89194 169.89092 31001 ft 463 kts 63°
2026-04-27 20:56 50.92051 169.98150 31001 ft 463 kts 63°
2026-04-27 20:57 50.94921 170.07279 31001 ft 462 kts 64°
2026-04-27 20:57 50.97782 170.16416 31001 ft 462 kts 64°
2026-04-27 20:58 51.00635 170.25564 31001 ft 462 kts 64°
2026-04-27 20:58 51.03458 170.34651 32474 ft 463 kts 57°
2026-04-27 20:58 51.04903 170.39304 32067 ft 477 kts 50°
2026-04-27 20:59 51.06391 170.44070 31895 ft 486 kts 50°
2026-04-27 20:59 51.07910 170.48945 31667 ft 498 kts 50°
2026-04-27 20:59 51.09458 170.53935 31516 ft 509 kts 51°
2026-04-27 20:59 51.11033 170.59045 31297 ft 520 kts 51°
2026-04-27 21:00 51.12636 170.64274 31177 ft 529 kts 51°
2026-04-27 21:00 51.15896 170.74973 31050 ft 544 kts 52°
2026-04-27 21:01 51.19202 170.85872 30977 ft 555 kts 52°
2026-04-27 21:01 51.22545 170.96952 30963 ft 553 kts 52°
2026-04-27 21:02 51.25873 171.08009 30956 ft 552 kts 52°
2026-04-27 21:02 51.29190 171.19052 30961 ft 551 kts 52°
2026-04-27 21:03 51.32472 171.30025 30958 ft 551 kts 52°
2026-04-27 21:03 51.35767 171.41089 30994 ft 550 kts 54°
2026-04-27 21:04 51.39066 171.52110 30950 ft 545 kts 51°
2026-04-27 21:04 51.40919 171.57332 30936 ft 534 kts 46°
2026-04-27 21:04 51.43033 171.62140 30929 ft 522 kts 40°
2026-04-27 21:05 51.47444 171.71249 30930 ft 521 kts 40°
2026-04-27 21:05 51.51879 171.80474 30963 ft 523 kts 40°
2026-04-27 21:06 51.56289 171.89782 30935 ft 524 kts 44°
2026-04-27 21:06 51.60680 171.99144 30919 ft 523 kts 44°
2026-04-27 21:07 51.65042 172.08487 30907 ft 521 kts 44°
2026-04-27 21:07 51.69357 172.17753 30910 ft 520 kts 44°
2026-04-27 21:08 51.73689 172.27080 30925 ft 519 kts 45°
2026-04-27 21:08 51.78008 172.36411 30901 ft 518 kts 45°
2026-04-27 21:09 51.82318 172.45746 30904 ft 518 kts 46°
2026-04-27 21:09 51.86577 172.55020 30890 ft 517 kts 46°
2026-04-27 21:10 51.90852 172.64363 30875 ft 516 kts 46°
2026-04-27 21:10 51.95112 172.73706 30886 ft 515 kts 46°
2026-04-27 21:11 51.99359 172.83050 30867 ft 514 kts 47°
2026-04-27 21:11 52.03591 172.92397 30867 ft 513 kts 47°
2026-04-27 21:12 52.07780 173.01680 30883 ft 513 kts 47°
2026-04-27 21:12 52.11990 173.11045 30877 ft 512 kts 48°
2026-04-27 21:13 52.16181 173.20398 30838 ft 510 kts 49°
2026-04-27 21:13 52.20339 173.29721 30821 ft 507 kts 49°
2026-04-27 21:14 52.24471 173.39016 30826 ft 505 kts 49°
2026-04-27 21:14 52.28560 173.48244 30821 ft 505 kts 49°
2026-04-27 21:15 52.32671 173.57552 30852 ft 505 kts 50°
2026-04-27 21:15 52.36776 173.66882 30825 ft 505 kts 50°
2026-04-27 21:16 52.40864 173.76220 30796 ft 504 kts 50°
2026-04-27 21:16 52.44903 173.85471 30781 ft 502 kts 50°
2026-04-27 21:17 52.48951 173.94772 30778 ft 500 kts 50°
2026-04-27 21:17 52.52984 174.04075 30789 ft 500 kts 50°
2026-04-27 21:18 52.57008 174.13392 30774 ft 500 kts 50°
2026-04-27 21:18 52.61000 174.22669 30767 ft 500 kts 50°
2026-04-27 21:19 52.65008 174.32019 30778 ft 500 kts 50°
2026-04-27 21:19 52.69013 174.41393 30756 ft 500 kts 50°
2026-04-27 21:20 52.75004 174.55484 30755 ft 500 kts 50°
2026-04-27 21:20 52.78986 174.64892 30741 ft 499 kts 50°
2026-04-27 21:21 52.82928 174.74240 30745 ft 499 kts 50°
2026-04-27 21:21 52.86888 174.83665 30728 ft 499 kts 50°
2026-04-27 21:22 52.90840 174.93105 30753 ft 498 kts 50°
2026-04-27 21:22 52.94781 175.02558 30720 ft 498 kts 50°
2026-04-27 21:23 52.98680 175.11943 30712 ft 496 kts 50°
2026-04-27 21:23 53.02586 175.21381 30711 ft 495 kts 50°
2026-04-27 21:24 53.06477 175.30814 30706 ft 494 kts 50°
2026-04-27 21:24 53.10356 175.40253 30695 ft 494 kts 50°
2026-04-27 21:25 53.14207 175.49659 30701 ft 495 kts 50°
2026-04-27 21:25 53.18077 175.59148 30700 ft 495 kts 51°
2026-04-27 21:26 53.21943 175.68664 30685 ft 495 kts 51°
2026-04-27 21:26 53.25801 175.78196 30663 ft 495 kts 51°
2026-04-27 21:27 53.28997 175.86120 30656 ft 495 kts 51°
2026-04-27 21:27 53.33456 175.97219 30652 ft 495 kts 50°
2026-04-27 21:28 53.37287 176.06790 30645 ft 495 kts 51°
2026-04-27 21:28 53.41107 176.16370 30627 ft 494 kts 51°
2026-04-27 21:29 53.44274 176.24341 30639 ft 494 kts 51°
2026-04-27 21:29 53.48692 176.35503 30615 ft 494 kts 51°
2026-04-27 21:30 53.52480 176.45116 30612 ft 494 kts 51°
2026-04-27 21:30 53.55624 176.53120 30591 ft 493 kts 51°
2026-04-27 21:31 53.59399 176.62763 30588 ft 493 kts 51°
2026-04-27 21:31 53.63162 176.72415 30570 ft 493 kts 51°
2026-04-27 21:32 53.66921 176.82093 30571 ft 493 kts 51°
2026-04-27 21:32 53.70647 176.91722 30585 ft 494 kts 51°
2026-04-27 21:33 53.74401 177.01460 30555 ft 495 kts 51°
2026-04-27 21:33 53.78144 177.11214 30539 ft 494 kts 51°
2026-04-27 21:34 53.81875 177.20971 30531 ft 493 kts 51°
2026-04-27 21:34 53.85587 177.30717 30527 ft 492 kts 51°
2026-04-27 21:35 53.89265 177.40408 30546 ft 492 kts 52°
2026-04-27 21:35 53.92966 177.50196 30504 ft 493 kts 52°
2026-04-27 21:36 53.96662 177.60014 30497 ft 494 kts 52°
2026-04-27 21:36 54.00356 177.69863 30483 ft 494 kts 52°
2026-04-27 21:37 54.04019 177.79670 30473 ft 495 kts 52°
2026-04-27 21:37 54.07705 177.89579 30509 ft 495 kts 52°
2026-04-27 21:38 54.11392 177.99527 30463 ft 497 kts 52°
2026-04-27 21:38 54.15073 178.09503 30450 ft 497 kts 52°
2026-04-27 21:39 54.18748 178.19497 30439 ft 497 kts 52°
2026-04-27 21:39 54.22085 178.29789 30426 ft 504 kts 62°
2026-04-27 21:40 54.24282 178.41224 30474 ft 511 kts 72°
2026-04-27 21:40 54.25816 178.53110 30400 ft 512 kts 73°
2026-04-27 21:41 54.27327 178.65008 30405 ft 511 kts 73°
2026-04-27 21:41 54.28849 178.76800 30385 ft 511 kts 73°
2026-04-27 21:42 54.30390 178.88664 30389 ft 510 kts 73°
2026-04-27 21:42 54.31924 179.00534 30371 ft 511 kts 73°
2026-04-27 21:43 54.33447 179.12432 30376 ft 512 kts 73°
2026-04-27 21:43 54.34950 179.24287 30352 ft 513 kts 73°
2026-04-27 21:44 54.36453 179.36242 30333 ft 513 kts 73°
2026-04-27 21:44 54.37944 179.48213 30365 ft 514 kts 73°
2026-04-27 21:45 54.39666 179.62169 30331 ft 514 kts 74°
2026-04-27 21:45 54.40899 179.72235 30320 ft 514 kts 73°
2026-04-27 21:46 54.42347 179.84176 30310 ft 514 kts 73°
2026-04-27 21:46 54.43792 179.96192 30313 ft 514 kts 74°
2026-04-27 21:47 54.45227 -179.91778 30287 ft 514 kts 74°
2026-04-27 21:47 54.46650 -179.79721 30283 ft 515 kts 75°
2026-04-27 21:48 54.48054 -179.67741 30270 ft 515 kts 75°
2026-04-27 21:48 54.49453 -179.55671 30265 ft 514 kts 75°
2026-04-27 21:49 54.50837 -179.43614 30267 ft 513 kts 75°
2026-04-27 21:49 54.52207 -179.31591 30249 ft 511 kts 76°
2026-04-27 21:50 54.53559 -179.19573 30251 ft 512 kts 75°
2026-04-27 21:50 54.54895 -179.07612 30220 ft 512 kts 75°
2026-04-27 21:51 54.56231 -178.95557 30227 ft 512 kts 75°
2026-04-27 21:51 54.57556 -178.83480 30220 ft 513 kts 75°
2026-04-27 21:52 54.58868 -178.71392 30209 ft 513 kts 76°
2026-04-27 21:52 54.60158 -178.59391 30196 ft 512 kts 75°
2026-04-27 21:53 54.61439 -178.47321 30185 ft 512 kts 76°
2026-04-27 21:53 54.62711 -178.35231 30198 ft 513 kts 76°
2026-04-27 21:54 54.63980 -178.23094 30176 ft 514 kts 76°
2026-04-27 21:54 54.65228 -178.11010 30163 ft 515 kts 76°
2026-04-27 21:55 54.66472 -177.98828 30150 ft 514 kts 77°
2026-04-27 21:55 54.67698 -177.86672 30152 ft 513 kts 76°
2026-04-27 21:56 54.69516 -177.68444 30145 ft 513 kts 77°
2026-04-27 21:57 54.70707 -177.56352 30134 ft 514 kts 76°
2026-04-27 21:57 54.71895 -177.44159 30121 ft 515 kts 78°
2026-04-27 21:58 54.73071 -177.31945 30104 ft 514 kts 78°
2026-04-27 21:58 54.74231 -177.19758 30105 ft 512 kts 78°
2026-04-27 21:59 54.75371 -177.07656 30083 ft 514 kts 77°
2026-04-27 21:59 54.76508 -176.95435 30076 ft 514 kts 79°
2026-04-27 22:00 54.77636 -176.83212 30082 ft 514 kts 77°
2026-04-27 22:00 54.78750 -176.70973 30081 ft 515 kts 78°
2026-04-27 22:01 54.79854 -176.58698 30071 ft 516 kts 78°
2026-04-27 22:01 54.80941 -176.46474 30041 ft 517 kts 79°
2026-04-27 22:02 54.82021 -176.34167 30046 ft 516 kts 79°
2026-04-27 22:02 54.83093 -176.21838 30031 ft 519 kts 78°
2026-04-27 22:03 54.84159 -176.09429 30033 ft 521 kts 79°
2026-04-27 22:03 54.85207 -175.97023 30034 ft 518 kts 79°
2026-04-27 22:04 54.86231 -175.84761 30019 ft 515 kts 80°
2026-04-27 22:04 54.87240 -175.72518 30015 ft 510 kts 79°
2026-04-27 22:05 54.88241 -175.60285 29996 ft 514 kts 80°
2026-04-27 22:05 54.89232 -175.47978 30004 ft 515 kts 81°
2026-04-27 22:06 54.90206 -175.35695 30001 ft 518 kts 81°
2026-04-27 22:06 54.91183 -175.23236 29996 ft 522 kts 81°
2026-04-27 22:07 54.92149 -175.10737 30000 ft 520 kts 81°
2026-04-27 22:07 54.93095 -174.98323 30012 ft 516 kts 82°
2026-04-27 22:08 54.94019 -174.86049 30004 ft 513 kts 82°
2026-04-27 22:08 54.94933 -174.73730 29973 ft 514 kts 82°
2026-04-27 22:09 54.95836 -174.61363 29977 ft 517 kts 81°
2026-04-27 22:09 54.96731 -174.48948 29993 ft 517 kts 82°
2026-04-27 22:10 54.97616 -174.36495 30001 ft 519 kts 82°
2026-04-27 22:10 54.98483 -174.24095 29999 ft 518 kts 82°
2026-04-27 22:11 54.99337 -174.11699 29987 ft 513 kts 83°
2026-04-27 22:11 55.00174 -173.99366 29984 ft 514 kts 83°
2026-04-27 22:12 55.01003 -173.86968 29988 ft 516 kts 83°
2026-04-27 22:12 55.01815 -173.74614 29998 ft 517 kts 83°
2026-04-27 22:13 55.02624 -173.62128 30011 ft 520 kts 83°
2026-04-27 22:13 55.03424 -173.49579 29999 ft 520 kts 83°
2026-04-27 22:14 55.04209 -173.37044 29992 ft 519 kts 83°
2026-04-27 22:14 55.04977 -173.24562 29993 ft 516 kts 83°
2026-04-27 22:15 55.05722 -173.12253 30017 ft 514 kts 84°
2026-04-27 22:15 55.06461 -172.99855 30025 ft 514 kts 84°
2026-04-27 22:16 55.07185 -172.87476 30028 ft 512 kts 84°
2026-04-27 22:16 55.07894 -172.75124 30028 ft 513 kts 84°
2026-04-27 22:17 55.08592 -172.62757 30028 ft 516 kts 84°
2026-04-27 22:17 55.09283 -172.50273 30029 ft 516 kts 85°
2026-04-27 22:18 55.09961 -172.37802 30026 ft 516 kts 85°
2026-04-27 22:18 55.10625 -172.25336 30042 ft 515 kts 85°
2026-04-27 22:19 55.11274 -172.12961 30035 ft 509 kts 85°
2026-04-27 22:19 55.11898 -172.00761 30049 ft 508 kts 85°
2026-04-27 22:20 55.12517 -171.88424 30059 ft 511 kts 85°
2026-04-27 22:20 55.13127 -171.76020 30068 ft 514 kts 85°
2026-04-27 22:21 55.13727 -171.63554 30074 ft 514 kts 86°
2026-04-27 22:21 55.14310 -171.51184 30070 ft 512 kts 86°
2026-04-27 22:22 55.14881 -171.38808 30080 ft 509 kts 86°
2026-04-27 22:22 55.15439 -171.26445 30083 ft 511 kts 86°
2026-04-27 22:23 55.15986 -171.14029 30076 ft 514 kts 87°
2026-04-27 22:23 55.16520 -171.01649 30078 ft 514 kts 87°
2026-04-27 22:24 55.17062 -170.89203 30086 ft 513 kts 85°
2026-04-27 22:24 55.18324 -170.76942 30107 ft 511 kts 79°
2026-04-27 22:25 55.19854 -170.64830 30099 ft 508 kts 79°
2026-04-27 22:25 55.21339 -170.52822 30094 ft 508 kts 79°
2026-04-27 22:26 55.22794 -170.40705 30116 ft 508 kts 80°
2026-04-27 22:26 55.24225 -170.28575 30113 ft 508 kts 80°
2026-04-27 22:27 55.25643 -170.16448 30125 ft 509 kts 79°
2026-04-27 22:27 55.27058 -170.04233 30133 ft 513 kts 80°
2026-04-27 22:28 55.28461 -169.92039 30128 ft 513 kts 80°
2026-04-27 22:28 55.29855 -169.79808 30130 ft 510 kts 80°
2026-04-27 22:29 55.31230 -169.67614 30148 ft 509 kts 81°
2026-04-27 22:29 55.32591 -169.55427 30165 ft 509 kts 81°
2026-04-27 22:30 55.33935 -169.43306 30148 ft 508 kts 81°
2026-04-27 22:30 55.35267 -169.31138 30173 ft 507 kts 82°
2026-04-27 22:31 55.36590 -169.18955 30169 ft 507 kts 81°
2026-04-27 22:31 55.37898 -169.06769 30186 ft 507 kts 81°
2026-04-27 22:32 55.39196 -168.94591 30183 ft 507 kts 81°
2026-04-27 22:32 55.40472 -168.82482 30179 ft 507 kts 82°
2026-04-27 22:33 55.41742 -168.70299 30191 ft 506 kts 81°
2026-04-27 22:33 55.43000 -168.58117 30197 ft 506 kts 82°
2026-04-27 22:34 55.44247 -168.45914 30195 ft 506 kts 83°
2026-04-27 22:34 55.45473 -168.33785 30205 ft 507 kts 82°
2026-04-27 22:35 55.46696 -168.21555 30212 ft 507 kts 83°
2026-04-27 22:35 55.47908 -168.09313 30224 ft 506 kts 82°
2026-04-27 22:36 55.49100 -167.97157 30207 ft 501 kts 82°
2026-04-27 22:36 55.50262 -167.85168 30238 ft 499 kts 82°
2026-04-27 22:37 55.51424 -167.73045 30247 ft 504 kts 83°
2026-04-27 22:37 55.52583 -167.60795 30240 ft 508 kts 83°
2026-04-27 22:38 55.53737 -167.48508 30240 ft 506 kts 83°
2026-04-27 22:38 55.54863 -167.36380 30259 ft 503 kts 83°
2026-04-27 22:39 55.55978 -167.24206 30274 ft 502 kts 83°
2026-04-27 22:39 55.57080 -167.12020 30280 ft 503 kts 84°
2026-04-27 22:40 55.58175 -166.99793 30269 ft 504 kts 84°
2026-04-27 22:40 55.59262 -166.87550 30296 ft 504 kts 83°
2026-04-27 22:41 55.60328 -166.75368 30294 ft 505 kts 83°
2026-04-27 22:41 55.61388 -166.63105 30313 ft 504 kts 85°
2026-04-27 22:42 55.62432 -166.50856 30309 ft 503 kts 84°
2026-04-27 22:42 55.63465 -166.38636 30317 ft 501 kts 84°
2026-04-27 22:43 55.64475 -166.26518 30326 ft 501 kts 84°
2026-04-27 22:43 55.65480 -166.14307 30337 ft 501 kts 84°
2026-04-27 22:44 55.66474 -166.02074 30336 ft 502 kts 84°
2026-04-27 22:44 55.67457 -165.89818 30349 ft 503 kts 84°
2026-04-27 22:45 55.68422 -165.77636 30343 ft 503 kts 84°
2026-04-27 22:45 55.69382 -165.65348 30362 ft 503 kts 84°
2026-04-27 22:46 55.70331 -165.53048 30362 ft 504 kts 84°
2026-04-27 22:46 55.71268 -165.40740 30371 ft 504 kts 85°
2026-04-27 22:47 55.72193 -165.28435 30370 ft 503 kts 85°
2026-04-27 22:47 55.73097 -165.16215 30381 ft 503 kts 85°
2026-04-27 22:48 55.73995 -165.03910 30390 ft 503 kts 85°
2026-04-27 22:48 55.74882 -164.91595 30401 ft 503 kts 85°
2026-04-27 22:49 55.75756 -164.79271 30398 ft 503 kts 85°
2026-04-27 22:49 55.76618 -164.66937 30413 ft 503 kts 85°
2026-04-27 22:50 55.77461 -164.54701 30414 ft 502 kts 85°
2026-04-27 22:50 55.78295 -164.42409 30423 ft 501 kts 85°
2026-04-27 22:51 55.79116 -164.30131 30421 ft 500 kts 85°
2026-04-27 22:51 55.79923 -164.17862 30436 ft 499 kts 85°
2026-04-27 22:52 55.80712 -164.05685 30438 ft 499 kts 85°
2026-04-27 22:52 55.81494 -163.93421 30440 ft 499 kts 86°
2026-04-27 22:53 55.82264 -163.81144 30445 ft 500 kts 86°
2026-04-27 22:53 55.83024 -163.68838 30455 ft 501 kts 86°
2026-04-27 22:54 55.83772 -163.56512 30461 ft 501 kts 86°
2026-04-27 22:54 55.84503 -163.44254 30451 ft 502 kts 86°
2026-04-27 22:55 55.85228 -163.31911 30472 ft 502 kts 86°
2026-04-27 22:55 55.85939 -163.19563 30477 ft 502 kts 86°
2026-04-27 22:56 55.86635 -163.07285 30493 ft 502 kts 86°
2026-04-27 22:56 55.87322 -162.94925 30491 ft 502 kts 87°
2026-04-27 22:57 55.87997 -162.82567 30496 ft 501 kts 87°
2026-04-27 22:57 55.88660 -162.70203 30500 ft 501 kts 88°
2026-04-27 22:58 55.89309 -162.57839 30507 ft 501 kts 87°
2026-04-27 22:58 55.89940 -162.45581 30500 ft 500 kts 87°
2026-04-27 22:59 55.90563 -162.33245 30513 ft 499 kts 87°
2026-04-27 22:59 55.91173 -162.20928 30515 ft 499 kts 88°
2026-04-27 23:00 55.92060 -162.02550 30530 ft 498 kts 88°
2026-04-27 23:00 55.92638 -161.90244 30529 ft 498 kts 88°
2026-04-27 23:01 55.93203 -161.77933 30543 ft 498 kts 88°
2026-04-27 23:01 55.93757 -161.65617 30541 ft 498 kts 88°
2026-04-27 23:02 55.94296 -161.53373 30550 ft 498 kts 88°
2026-04-27 23:02 55.94826 -161.41039 30560 ft 499 kts 89°
2026-04-27 23:03 55.95343 -161.28684 30579 ft 500 kts 89°
2026-04-27 23:03 55.95849 -161.16317 30596 ft 499 kts 89°
2026-04-27 23:04 55.96342 -161.03979 30585 ft 497 kts 89°
2026-04-27 23:04 55.96818 -160.91771 30583 ft 495 kts 89°
2026-04-27 23:05 55.97283 -160.79523 30587 ft 494 kts 89°
2026-04-27 23:05 55.97733 -160.67290 30595 ft 493 kts 90°
2026-04-27 23:06 55.98172 -160.55064 30609 ft 493 kts 90°
2026-04-27 23:06 55.98596 -160.42914 30609 ft 494 kts 90°
2026-04-27 23:07 55.99012 -160.30672 30612 ft 494 kts 90°
2026-04-27 23:07 55.99416 -160.18412 30618 ft 495 kts 90°
2026-04-27 23:08 55.99810 -160.06126 30642 ft 496 kts 90°
2026-04-27 23:08 55.99753 -159.93868 30640 ft 491 kts 99°
2026-04-27 23:09 55.98999 -159.81843 30657 ft 491 kts 100°
2026-04-27 23:09 55.98230 -159.69731 30646 ft 490 kts 101°
2026-04-27 23:10 55.97484 -159.57672 30656 ft 488 kts 100°
2026-04-27 23:10 55.96749 -159.45670 30637 ft 485 kts 100°
2026-04-27 23:11 55.96005 -159.33736 30704 ft 484 kts 101°
2026-04-27 23:11 55.95255 -159.21889 30705 ft 484 kts 101°
2026-04-27 23:12 55.94487 -159.09968 30704 ft 483 kts 101°
2026-04-27 23:12 55.93706 -158.98042 30706 ft 484 kts 101°
2026-04-27 23:13 55.92914 -158.86102 30699 ft 486 kts 101°
2026-04-27 23:13 55.92115 -158.74220 30698 ft 486 kts 101°
2026-04-27 23:14 55.91296 -158.62261 30670 ft 486 kts 101°
2026-04-27 23:14 55.90467 -158.50304 30691 ft 486 kts 102°
2026-04-27 23:15 55.89625 -158.38347 30698 ft 486 kts 102°
2026-04-27 23:15 55.88778 -158.26468 30704 ft 487 kts 102°
2026-04-27 23:16 55.87913 -158.14505 30701 ft 487 kts 102°
2026-04-27 23:16 55.87036 -158.02554 30673 ft 487 kts 103°
2026-04-27 23:17 55.86150 -157.90621 30704 ft 486 kts 103°
2026-04-27 23:17 55.85257 -157.78781 30715 ft 486 kts 103°
2026-04-27 23:18 55.84347 -157.66874 30717 ft 486 kts 103°
2026-04-27 23:18 55.83427 -157.54971 30720 ft 486 kts 103°
2026-04-27 23:19 55.82496 -157.43082 30699 ft 485 kts 104°
2026-04-27 23:19 55.81554 -157.31206 30711 ft 485 kts 104°
2026-04-27 23:20 55.80608 -157.19438 30727 ft 484 kts 104°
2026-04-27 23:20 55.79645 -157.07603 30730 ft 483 kts 104°
2026-04-27 23:21 55.78672 -156.95787 30733 ft 483 kts 104°
2026-04-27 23:21 55.77696 -156.84072 30711 ft 482 kts 105°
2026-04-27 23:22 55.76703 -156.72303 30731 ft 482 kts 105°
2026-04-27 23:22 55.75697 -156.60518 30738 ft 483 kts 105°
2026-04-27 23:23 55.74678 -156.48727 30741 ft 484 kts 105°
2026-04-27 23:23 55.73647 -156.36920 30744 ft 484 kts 105°
2026-04-27 23:24 55.72611 -156.25193 30747 ft 484 kts 105°
2026-04-27 23:24 55.71557 -156.13389 30745 ft 484 kts 106°
2026-04-27 23:25 55.70492 -156.01600 30748 ft 484 kts 106°
2026-04-27 23:25 55.69415 -155.89817 30753 ft 484 kts 106°
2026-04-27 23:26 55.68336 -155.78136 30712 ft 483 kts 106°
2026-04-27 23:26 55.67242 -155.66406 30753 ft 483 kts 107°
2026-04-27 23:27 55.66134 -155.54672 30756 ft 483 kts 107°
2026-04-27 23:27 55.65013 -155.42935 30759 ft 484 kts 107°
2026-04-27 23:28 55.63882 -155.31197 30765 ft 484 kts 107°
2026-04-27 23:28 55.62746 -155.19535 30713 ft 484 kts 108°
2026-04-27 23:29 55.61594 -155.07811 30758 ft 484 kts 108°
2026-04-27 23:29 55.60427 -154.96088 30765 ft 484 kts 108°
2026-04-27 23:30 55.59250 -154.84376 30746 ft 484 kts 108°
2026-04-27 23:30 55.58072 -154.72754 30766 ft 483 kts 108°
2026-04-27 23:31 55.56877 -154.61072 30730 ft 482 kts 109°
2026-04-27 23:31 55.55673 -154.49431 30771 ft 482 kts 109°
2026-04-27 23:32 55.54454 -154.37786 30780 ft 482 kts 109°
2026-04-27 23:32 55.53225 -154.26146 30778 ft 483 kts 110°
2026-04-27 23:33 55.51993 -154.14580 30784 ft 483 kts 110°
2026-04-27 23:33 55.50745 -154.02944 30762 ft 482 kts 110°
2026-04-27 23:34 55.49484 -153.91334 30781 ft 483 kts 111°
2026-04-27 23:34 55.48208 -153.79706 30789 ft 483 kts 111°
2026-04-27 23:35 55.46930 -153.68148 30791 ft 484 kts 111°
2026-04-27 23:35 55.45632 -153.56516 30792 ft 484 kts 111°
2026-04-27 23:36 55.44329 -153.44900 30785 ft 483 kts 112°
2026-04-27 23:36 55.43009 -153.33305 30794 ft 483 kts 112°
2026-04-27 23:37 55.41686 -153.21782 30803 ft 484 kts 112°
2026-04-27 23:37 55.40343 -153.10176 30804 ft 484 kts 112°
2026-04-27 23:38 55.38991 -152.98582 30727 ft 484 kts 113°
2026-04-27 23:38 55.37632 -152.87003 30803 ft 483 kts 113°
2026-04-27 23:39 55.36255 -152.75434 30808 ft 484 kts 113°
2026-04-27 23:39 55.34876 -152.63936 30815 ft 484 kts 114°
2026-04-27 23:40 55.33478 -152.52357 30814 ft 485 kts 114°
2026-04-27 23:40 55.32069 -152.40779 30713 ft 484 kts 114°
2026-04-27 23:41 55.30652 -152.29236 30805 ft 483 kts 114°
2026-04-27 23:41 55.29229 -152.17770 30815 ft 485 kts 114°
2026-04-27 23:42 55.27783 -152.06203 30821 ft 486 kts 114°
2026-04-27 23:42 55.26324 -151.94619 30827 ft 487 kts 115°
2026-04-27 23:43 55.24852 -151.83026 30801 ft 487 kts 115°
2026-04-27 23:43 55.23372 -151.71458 30822 ft 487 kts 115°
2026-04-27 23:44 55.21886 -151.59950 30826 ft 488 kts 115°
2026-04-27 23:44 55.20378 -151.48364 30827 ft 488 kts 115°
2026-04-27 23:45 55.18860 -151.36781 30827 ft 488 kts 115°
2026-04-27 23:45 55.17342 -151.25299 30811 ft 487 kts 115°
2026-04-27 23:46 55.15804 -151.13756 30833 ft 488 kts 115°
2026-04-27 23:46 55.14251 -151.02197 30838 ft 489 kts 115°
2026-04-27 23:47 55.12683 -150.90620 30837 ft 490 kts 115°
2026-04-27 23:47 55.11105 -150.79040 30837 ft 490 kts 115°
2026-04-27 23:48 55.09527 -150.67557 30845 ft 489 kts 115°
2026-04-27 23:48 55.07930 -150.56018 30843 ft 489 kts 115°
2026-04-27 23:49 55.06324 -150.44508 30847 ft 488 kts 115°
2026-04-27 23:49 55.04709 -150.33020 30847 ft 487 kts 115°
2026-04-27 23:50 55.03094 -150.21626 30798 ft 487 kts 115°
2026-04-27 23:50 55.01461 -150.10168 30849 ft 489 kts 115°
2026-04-27 23:51 54.99896 -149.98601 30846 ft 497 kts 110°
2026-04-27 23:51 54.99127 -149.86487 30858 ft 505 kts 106°
2026-04-27 23:52 54.98473 -149.74371 30881 ft 507 kts 106°
2026-04-27 23:52 54.97776 -149.62164 30856 ft 506 kts 106°
2026-04-27 23:53 54.97043 -149.49965 30880 ft 507 kts 106°
2026-04-27 23:53 54.96288 -149.37757 30882 ft 507 kts 106°
2026-04-27 23:54 54.95527 -149.25644 30884 ft 507 kts 106°
2026-04-27 23:54 54.94750 -149.13461 30882 ft 506 kts 106°
2026-04-27 23:55 54.93966 -149.01316 30891 ft 504 kts 106°
2026-04-27 23:55 54.93168 -148.89197 30894 ft 505 kts 106°
2026-04-27 23:56 54.92362 -148.77155 30898 ft 505 kts 106°
2026-04-27 23:56 54.91539 -148.65021 30906 ft 505 kts 106°
2026-04-27 23:57 54.90704 -148.52893 30848 ft 506 kts 105°
2026-04-27 23:57 54.89858 -148.40772 30923 ft 505 kts 105°
2026-04-27 23:58 54.88999 -148.28648 30931 ft 506 kts 106°
2026-04-27 23:58 54.88132 -148.16591 30930 ft 507 kts 106°
2026-04-27 23:59 54.87247 -148.04451 30934 ft 507 kts 106°
2026-04-27 23:59 54.86349 -147.92303 30884 ft 507 kts 105°
2026-04-28 00:00 54.85444 -147.80203 30936 ft 505 kts 105°
2026-04-28 00:00 54.84530 -147.68193 30951 ft 505 kts 106°
2026-04-28 00:01 54.83599 -147.56118 30960 ft 505 kts 106°
2026-04-28 00:01 54.82656 -147.44033 30963 ft 505 kts 106°
2026-04-28 00:02 54.81701 -147.31959 30938 ft 505 kts 105°
2026-04-28 00:02 54.80742 -147.19983 30968 ft 505 kts 105°
2026-04-28 00:03 54.79764 -147.07926 30973 ft 505 kts 106°
2026-04-28 00:03 54.78773 -146.95872 30987 ft 506 kts 106°
2026-04-28 00:04 54.77263 -146.77779 30946 ft 506 kts 105°
2026-04-28 00:05 54.76250 -146.65818 30992 ft 505 kts 106°
2026-04-28 00:05 54.75216 -146.53775 31007 ft 506 kts 106°
2026-04-28 00:06 54.74170 -146.41730 31009 ft 506 kts 106°
2026-04-28 00:06 54.73112 -146.29682 31017 ft 506 kts 106°
2026-04-28 00:07 54.72049 -146.17723 30981 ft 506 kts 105°
2026-04-28 00:07 54.70968 -146.05699 31023 ft 506 kts 106°
2026-04-28 00:08 54.69873 -145.93658 31018 ft 507 kts 105°
2026-04-28 00:08 54.68953 -145.83647 31042 ft 508 kts 105°
2026-04-28 00:09 54.67649 -145.69625 31036 ft 509 kts 106°
2026-04-28 00:09 54.66512 -145.57545 31033 ft 510 kts 105°
2026-04-28 00:10 54.65361 -145.45448 31046 ft 511 kts 105°
2026-04-28 00:10 54.64395 -145.35391 31054 ft 511 kts 105°
2026-04-28 00:11 54.63028 -145.21309 31052 ft 512 kts 106°
2026-04-28 00:11 54.61838 -145.09196 31062 ft 512 kts 106°
2026-04-28 00:12 54.60841 -144.99145 31065 ft 511 kts 106°
2026-04-28 00:12 54.59631 -144.87071 31075 ft 511 kts 106°
2026-04-28 00:13 54.58410 -144.75015 31079 ft 510 kts 106°
2026-04-28 00:13 54.57178 -144.62976 31084 ft 510 kts 106°
2026-04-28 00:14 54.55944 -144.51038 31085 ft 510 kts 106°
2026-04-28 00:14 54.54688 -144.39019 31090 ft 510 kts 106°
2026-04-28 00:15 54.53418 -144.26983 31110 ft 512 kts 106°
2026-04-28 00:15 54.52132 -144.14917 31109 ft 513 kts 106°
2026-04-28 00:16 54.50841 -144.02912 31117 ft 514 kts 106°
2026-04-28 00:16 54.49528 -143.90826 31074 ft 514 kts 106°
2026-04-28 00:17 54.48202 -143.78744 31122 ft 514 kts 106°
2026-04-28 00:17 54.46863 -143.66657 31127 ft 515 kts 106°
2026-04-28 00:18 54.45512 -143.54580 31131 ft 515 kts 106°
2026-04-28 00:18 54.44157 -143.42581 31134 ft 515 kts 106°
2026-04-28 00:19 54.42781 -143.30516 31127 ft 514 kts 106°
2026-04-28 00:19 54.41394 -143.18464 31144 ft 515 kts 106°
2026-04-28 00:20 54.39994 -143.06403 31156 ft 515 kts 106°
2026-04-28 00:20 54.38589 -142.94425 31155 ft 516 kts 106°
2026-04-28 00:21 54.37162 -142.82358 31163 ft 516 kts 106°
2026-04-28 00:21 54.35720 -142.70285 31164 ft 517 kts 106°
2026-04-28 00:22 54.34273 -142.58276 31180 ft 519 kts 107°
2026-04-28 00:22 54.32802 -142.46170 31185 ft 520 kts 107°
2026-04-28 00:23 54.31314 -142.34038 31180 ft 520 kts 107°
2026-04-28 00:23 54.29816 -142.21920 31163 ft 520 kts 107°
2026-04-28 00:24 54.28305 -142.09812 31188 ft 520 kts 107°
2026-04-28 00:24 54.26793 -141.97800 31204 ft 520 kts 107°
2026-04-28 00:25 54.25256 -141.85710 31202 ft 521 kts 107°
2026-04-28 00:25 54.23706 -141.73602 31207 ft 521 kts 107°
2026-04-28 00:26 54.22144 -141.61511 31200 ft 521 kts 107°
2026-04-28 00:26 54.20582 -141.49519 31213 ft 521 kts 107°
2026-04-28 00:27 54.18996 -141.37448 31218 ft 521 kts 107°
2026-04-28 00:27 54.17398 -141.25388 31219 ft 521 kts 107°
2026-04-28 00:28 54.15789 -141.13338 31221 ft 521 kts 107°
2026-04-28 00:28 54.14176 -141.01359 31221 ft 522 kts 107°
2026-04-28 00:29 54.12533 -140.89269 31237 ft 525 kts 108°
2026-04-28 00:29 54.10872 -140.77135 31235 ft 526 kts 108°
2026-04-28 00:30 54.09195 -140.64983 31236 ft 527 kts 107°
2026-04-28 00:30 54.07516 -140.52910 31215 ft 528 kts 108°
2026-04-28 00:31 54.05812 -140.40753 31241 ft 529 kts 108°
2026-04-28 00:31 54.04089 -140.28566 31249 ft 530 kts 108°
2026-04-28 00:32 54.02352 -140.16359 31247 ft 531 kts 108°
2026-04-28 00:32 54.00677 -140.04117 31245 ft 534 kts 104°
2026-04-28 00:33 54.00002 -139.91595 31244 ft 539 kts 92°
2026-04-28 00:33 54.00241 -139.78830 31254 ft 541 kts 90°
2026-04-28 00:34 54.00488 -139.66044 31248 ft 542 kts 91°
2026-04-28 00:34 54.00680 -139.53247 31261 ft 542 kts 91°
2026-04-28 00:35 54.00834 -139.40531 31253 ft 541 kts 91°
2026-04-28 00:35 54.00972 -139.27738 31254 ft 541 kts 91°
2026-04-28 00:36 54.01099 -139.14965 31260 ft 540 kts 91°
2026-04-28 00:36 54.01214 -139.02203 31267 ft 540 kts 92°
2026-04-28 00:37 54.01316 -138.89537 31271 ft 539 kts 92°
2026-04-28 00:37 54.01404 -138.76794 31262 ft 539 kts 92°
2026-04-28 00:38 54.01479 -138.64051 31265 ft 539 kts 92°
2026-04-28 00:38 54.01540 -138.51302 31254 ft 540 kts 92°
2026-04-28 00:39 54.01588 -138.38602 31279 ft 541 kts 92°
2026-04-28 00:39 54.01623 -138.25787 31267 ft 543 kts 92°
2026-04-28 00:40 54.01644 -138.12947 31279 ft 543 kts 92°
2026-04-28 00:40 54.01651 -138.00085 31276 ft 544 kts 92°
2026-04-28 00:41 54.01645 -137.87332 31252 ft 543 kts 92°
2026-04-28 00:41 54.01625 -137.74488 31274 ft 543 kts 92°
2026-04-28 00:42 54.01592 -137.61652 31274 ft 543 kts 92°
2026-04-28 00:42 54.01544 -137.48805 31275 ft 543 kts 92°
2026-04-28 00:43 54.01484 -137.36039 31280 ft 544 kts 92°
2026-04-28 00:43 54.01409 -137.23189 31287 ft 544 kts 92°
2026-04-28 00:44 54.01320 -137.10341 31271 ft 543 kts 92°
2026-04-28 00:44 54.01219 -136.97491 31276 ft 543 kts 92°
2026-04-28 00:45 54.01104 -136.84732 31277 ft 544 kts 92°
2026-04-28 00:45 54.00975 -136.71875 31278 ft 544 kts 92°
2026-04-28 00:46 54.00832 -136.59027 31274 ft 544 kts 92°
2026-04-28 00:46 54.00675 -136.46166 31259 ft 544 kts 92°
2026-04-28 00:47 54.00506 -136.33406 31275 ft 543 kts 92°
2026-04-28 00:47 54.00322 -136.20569 31273 ft 543 kts 92°
2026-04-28 00:48 54.00127 -136.07731 31275 ft 543 kts 93°
2026-04-28 00:48 53.99285 -135.95009 31271 ft 540 kts 104°
2026-04-28 00:49 53.97330 -135.82738 31247 ft 538 kts 108°
2026-04-28 00:49 53.95310 -135.70584 31267 ft 538 kts 108°
2026-04-28 00:50 53.93308 -135.58332 31266 ft 539 kts 108°
2026-04-28 00:50 53.91315 -135.46060 31271 ft 540 kts 107°
2026-04-28 00:51 53.89311 -135.33785 31264 ft 540 kts 108°
2026-04-28 00:51 53.87306 -135.21611 31257 ft 540 kts 107°
2026-04-28 00:52 53.85275 -135.09373 31262 ft 539 kts 108°
2026-04-28 00:52 53.83233 -134.97167 31259 ft 539 kts 108°
2026-04-28 00:53 53.81177 -134.84960 31253 ft 539 kts 108°
2026-04-28 00:53 53.79126 -134.72866 31237 ft 539 kts 108°
2026-04-28 00:54 53.77048 -134.60701 31253 ft 538 kts 108°
2026-04-28 00:54 53.74961 -134.48563 31244 ft 538 kts 108°
2026-04-28 00:55 53.72862 -134.36439 31256 ft 537 kts 108°
2026-04-28 00:55 53.70767 -134.24421 31244 ft 537 kts 108°
2026-04-28 00:56 53.68652 -134.12366 31237 ft 536 kts 107°
2026-04-28 00:56 53.66527 -134.00335 31240 ft 535 kts 107°
2026-04-28 00:57 53.64393 -133.88338 31237 ft 534 kts 108°
2026-04-28 00:57 53.62248 -133.76358 31237 ft 534 kts 108°
2026-04-28 00:58 53.60106 -133.64470 31228 ft 534 kts 108°
2026-04-28 00:58 53.57940 -133.52526 31228 ft 533 kts 108°
2026-04-28 00:59 53.55763 -133.40604 31228 ft 533 kts 108°
2026-04-28 00:59 53.53577 -133.28707 31228 ft 532 kts 108°
2026-04-28 01:00 53.51395 -133.16905 31281 ft 535 kts 108°
2026-04-28 01:00 53.50284 -133.10923 31566 ft 536 kts 108°
2026-04-28 01:00 53.49171 -133.04956 31987 ft 534 kts 108°
2026-04-28 01:00 53.48063 -132.99025 32417 ft 532 kts 108°
2026-04-28 01:01 53.46955 -132.93120 32824 ft 530 kts 108°
2026-04-28 01:01 53.45846 -132.87227 33201 ft 529 kts 108°
2026-04-28 01:01 53.44732 -132.81326 33221 ft 533 kts 108°
2026-04-28 01:02 53.42493 -132.69522 33194 ft 529 kts 109°
2026-04-28 01:02 53.40271 -132.57877 33192 ft 527 kts 108°
2026-04-28 01:03 53.38027 -132.46191 33202 ft 526 kts 108°
2026-04-28 01:03 53.35775 -132.34533 33185 ft 527 kts 109°
2026-04-28 01:04 53.33524 -132.22950 33187 ft 526 kts 109°
2026-04-28 01:04 53.31248 -132.11312 33173 ft 527 kts 109°
2026-04-28 01:05 53.28958 -131.99665 33154 ft 527 kts 108°
2026-04-28 01:05 53.26663 -131.88051 33151 ft 527 kts 108°
2026-04-28 01:06 53.24728 -131.76343 33145 ft 527 kts 99°
2026-04-28 01:06 53.23722 -131.64245 33156 ft 526 kts 97°
2026-04-28 01:07 53.22740 -131.52126 33151 ft 527 kts 97°
2026-04-28 01:07 53.21706 -131.40015 33152 ft 528 kts 97°
2026-04-28 01:08 53.20637 -131.27905 33163 ft 528 kts 97°
2026-04-28 01:08 53.19557 -131.15858 33153 ft 529 kts 97°
2026-04-28 01:09 53.18461 -131.03724 33166 ft 530 kts 97°
2026-04-28 01:09 53.17352 -130.91583 33139 ft 530 kts 97°
2026-04-28 01:10 53.16231 -130.79446 33133 ft 530 kts 96°
2026-04-28 01:10 53.15106 -130.67400 33143 ft 530 kts 97°
2026-04-28 01:11 53.13961 -130.55284 33130 ft 529 kts 97°
2026-04-28 01:11 53.12805 -130.43194 33156 ft 529 kts 97°
2026-04-28 01:12 53.11637 -130.31104 33142 ft 529 kts 97°
2026-04-28 01:12 53.10465 -130.19107 33138 ft 528 kts 96°
2026-04-28 01:13 53.09274 -130.07056 33135 ft 528 kts 96°
2026-04-28 01:13 53.07469 -129.89006 33126 ft 527 kts 96°
2026-04-28 01:14 53.06251 -129.76992 33130 ft 527 kts 97°
2026-04-28 01:14 53.05029 -129.65068 33143 ft 527 kts 96°
2026-04-28 01:15 53.03788 -129.53060 33128 ft 527 kts 96°
2026-04-28 01:15 53.02803 -129.41034 33122 ft 524 kts 93°
2026-04-28 01:16 53.02016 -129.29088 33126 ft 523 kts 92°
2026-04-28 01:16 53.01219 -129.17086 33115 ft 523 kts 92°
2026-04-28 01:17 53.00387 -129.05078 33103 ft 523 kts 93°
2026-04-28 01:17 52.99528 -128.93090 33105 ft 523 kts 93°
2026-04-28 01:18 52.98659 -128.81092 33084 ft 524 kts 93°
2026-04-28 01:18 52.97784 -128.69193 33085 ft 523 kts 93°
2026-04-28 01:19 52.96896 -128.57241 33088 ft 521 kts 93°
2026-04-28 01:19 52.95998 -128.45319 33077 ft 520 kts 93°
2026-04-28 01:20 52.95082 -128.33425 33082 ft 520 kts 93°
2026-04-28 01:20 52.94169 -128.21613 33092 ft 521 kts 93°
2026-04-28 01:21 52.93234 -128.09691 33114 ft 522 kts 93°
2026-04-28 01:21 52.92284 -127.97771 33120 ft 520 kts 93°
2026-04-28 01:22 52.91327 -127.85886 33093 ft 520 kts 93°
2026-04-28 01:22 52.90364 -127.74100 33094 ft 520 kts 93°
2026-04-28 01:23 52.89384 -127.62221 33098 ft 521 kts 94°
2026-04-28 01:23 52.88388 -127.50322 33082 ft 521 kts 93°
2026-04-28 01:24 52.87384 -127.38489 33085 ft 519 kts 93°
2026-04-28 01:24 52.86380 -127.26791 33104 ft 516 kts 93°
2026-04-28 01:25 52.85355 -127.15015 33081 ft 518 kts 94°
2026-04-28 01:25 52.84319 -127.03190 33083 ft 520 kts 94°
2026-04-28 01:26 52.83268 -126.91347 33038 ft 521 kts 94°
2026-04-28 01:26 52.82211 -126.79594 33035 ft 521 kts 94°
2026-04-28 01:27 52.81133 -126.67740 33034 ft 521 kts 94°
2026-04-28 01:27 52.80043 -126.55913 33001 ft 519 kts 94°
2026-04-28 01:28 52.78948 -126.44159 32986 ft 518 kts 94°
2026-04-28 01:28 52.77841 -126.32386 32950 ft 518 kts 94°
2026-04-28 01:29 52.76732 -126.20725 32972 ft 518 kts 94°
2026-04-28 01:29 52.75603 -126.08977 32953 ft 518 kts 94°
2026-04-28 01:30 52.74464 -125.97237 32952 ft 519 kts 94°
2026-04-28 01:30 52.73308 -125.85469 32934 ft 520 kts 94°
2026-04-28 01:31 52.72149 -125.73798 32927 ft 519 kts 94°
2026-04-28 01:31 52.70973 -125.62067 32914 ft 518 kts 94°
2026-04-28 01:32 52.69787 -125.50372 32926 ft 517 kts 94°
2026-04-28 01:32 52.68592 -125.38695 32901 ft 516 kts 94°
2026-04-28 01:33 52.67395 -125.27117 32904 ft 515 kts 94°
2026-04-28 01:33 52.66181 -125.15488 32909 ft 516 kts 94°
2026-04-28 01:34 52.64954 -125.03850 32904 ft 515 kts 94°
2026-04-28 01:34 52.63716 -124.92223 32895 ft 515 kts 94°
2026-04-28 01:35 52.62473 -124.80679 32901 ft 516 kts 94°
2026-04-28 01:35 52.61212 -124.69060 32895 ft 516 kts 94°
2026-04-28 01:36 52.59941 -124.57456 32882 ft 515 kts 94°
2026-04-28 01:36 52.58659 -124.45878 32894 ft 515 kts 94°
2026-04-28 01:37 52.57377 -124.34393 32900 ft 514 kts 94°
2026-04-28 01:37 52.56075 -124.22852 32891 ft 513 kts 94°
2026-04-28 01:38 52.54763 -124.11332 32896 ft 513 kts 94°
2026-04-28 01:38 52.53443 -123.99827 32893 ft 512 kts 94°
2026-04-28 01:39 52.52114 -123.88353 32902 ft 511 kts 94°
2026-04-28 01:39 52.50783 -123.76965 32934 ft 511 kts 94°
2026-04-28 01:40 52.49431 -123.65498 32911 ft 512 kts 94°
2026-04-28 01:40 52.48067 -123.54031 32926 ft 512 kts 94°
2026-04-28 01:41 52.46693 -123.42584 32924 ft 511 kts 94°
2026-04-28 01:41 52.45320 -123.31235 32917 ft 511 kts 94°
2026-04-28 01:42 52.43926 -123.19823 32929 ft 510 kts 94°
2026-04-28 01:42 52.42525 -123.08447 32963 ft 509 kts 94°
2026-04-28 01:43 52.41113 -122.97063 32945 ft 510 kts 94°
2026-04-28 01:43 52.39700 -122.85774 32948 ft 509 kts 94°
2026-04-28 01:44 52.38269 -122.74434 32924 ft 509 kts 94°
2026-04-28 01:44 52.36827 -122.63105 32936 ft 508 kts 94°
2026-04-28 01:45 52.35376 -122.51801 32927 ft 508 kts 94°
2026-04-28 01:45 52.33927 -122.40591 32934 ft 508 kts 94°
2026-04-28 01:46 52.32453 -122.29291 32932 ft 508 kts 94°
2026-04-28 01:46 52.30970 -122.17995 32900 ft 508 kts 94°
2026-04-28 01:47 52.29479 -122.06747 32911 ft 506 kts 94°
2026-04-28 01:47 52.27992 -121.95613 32913 ft 505 kts 94°
2026-04-28 01:48 52.26488 -121.84431 32959 ft 504 kts 94°
2026-04-28 01:48 52.24976 -121.73275 32966 ft 503 kts 94°
2026-04-28 01:49 52.23453 -121.62122 32986 ft 504 kts 95°
2026-04-28 01:49 52.21929 -121.51037 32986 ft 504 kts 95°
2026-04-28 01:50 52.20383 -121.39889 32980 ft 504 kts 95°
2026-04-28 01:50 52.18829 -121.28774 32979 ft 502 kts 95°
2026-04-28 01:51 52.17270 -121.17690 32976 ft 502 kts 95°
2026-04-28 01:51 52.15701 -121.06625 32972 ft 501 kts 96°
2026-04-28 01:52 52.14135 -120.95655 33008 ft 501 kts 96°
2026-04-28 01:52 52.12547 -120.84602 32979 ft 502 kts 97°
2026-04-28 01:53 52.10945 -120.73553 32976 ft 502 kts 97°
2026-04-28 01:53 52.09336 -120.62523 32992 ft 501 kts 97°
2026-04-28 01:54 52.07726 -120.51576 32977 ft 501 kts 97°
2026-04-28 01:54 52.06098 -120.40575 32968 ft 501 kts 97°
2026-04-28 01:55 52.04461 -120.29578 32967 ft 500 kts 97°
2026-04-28 01:55 52.02816 -120.18604 32979 ft 500 kts 97°
2026-04-28 01:56 52.01169 -120.07695 32968 ft 501 kts 97°
2026-04-28 01:56 51.99483 -119.96716 32973 ft 502 kts 99°
2026-04-28 01:57 51.97572 -119.85785 32977 ft 505 kts 100°
2026-04-28 01:57 51.95567 -119.74859 32969 ft 505 kts 100°
2026-04-28 01:58 51.93592 -119.64016 32974 ft 505 kts 101°
2026-04-28 01:58 51.91618 -119.53129 32983 ft 503 kts 102°
2026-04-28 01:59 51.89648 -119.42262 32953 ft 501 kts 102°
2026-04-28 01:59 51.87680 -119.31460 32965 ft 500 kts 102°
2026-04-28 02:00 51.85703 -119.20679 32961 ft 499 kts 102°
2026-04-28 02:00 51.83735 -119.10013 32974 ft 498 kts 102°
2026-04-28 02:01 51.81744 -118.99293 32983 ft 498 kts 103°
2026-04-28 02:01 51.79747 -118.88588 32970 ft 498 kts 103°
2026-04-28 02:02 51.77732 -118.77859 32967 ft 499 kts 104°
2026-04-28 02:02 51.75720 -118.67213 32944 ft 499 kts 104°
2026-04-28 02:03 51.73686 -118.56513 32970 ft 499 kts 104°
2026-04-28 02:03 51.71644 -118.45831 32960 ft 498 kts 105°
2026-04-28 02:04 51.69598 -118.35184 32950 ft 497 kts 105°
2026-04-28 02:04 51.67560 -118.24631 32967 ft 496 kts 105°
2026-04-28 02:05 51.65499 -118.14025 32994 ft 496 kts 105°
2026-04-28 02:05 51.63428 -118.03430 32999 ft 496 kts 106°
2026-04-28 02:06 51.61349 -117.92840 32965 ft 496 kts 106°
2026-04-28 02:06 51.59275 -117.82343 32981 ft 496 kts 106°
2026-04-28 02:07 51.57177 -117.71785 32991 ft 496 kts 106°
2026-04-28 02:07 51.55070 -117.61237 32992 ft 495 kts 106°
2026-04-28 02:08 51.52959 -117.50702 32960 ft 496 kts 106°
2026-04-28 02:08 51.50846 -117.40236 32977 ft 496 kts 106°
2026-04-28 02:09 51.48709 -117.29722 32997 ft 495 kts 106°
2026-04-28 02:09 51.46567 -117.19221 32983 ft 495 kts 106°
2026-04-28 02:10 51.44417 -117.08735 32984 ft 495 kts 106°
2026-04-28 02:10 51.42274 -116.98339 33000 ft 494 kts 106°
2026-04-28 02:11 51.40107 -116.87884 32989 ft 495 kts 106°
2026-04-28 02:11 51.37926 -116.77419 33018 ft 495 kts 106°
2026-04-28 02:12 51.35736 -116.66965 33006 ft 496 kts 106°
2026-04-28 02:12 51.33536 -116.56514 32998 ft 496 kts 106°
2026-04-28 02:13 51.31340 -116.46136 33000 ft 496 kts 106°
2026-04-28 02:13 51.29124 -116.35717 33019 ft 495 kts 106°
2026-04-28 02:14 51.26895 -116.25293 33007 ft 496 kts 106°
2026-04-28 02:14 51.24654 -116.14867 33029 ft 497 kts 107°
2026-04-28 02:15 51.21286 -115.99285 33022 ft 498 kts 107°
2026-04-28 02:16 51.19014 -115.88851 33006 ft 498 kts 107°
2026-04-28 02:16 51.16736 -115.78439 33009 ft 497 kts 107°
2026-04-28 02:17 51.14452 -115.68052 33008 ft 497 kts 107°
2026-04-28 02:17 51.12177 -115.57753 33012 ft 497 kts 107°
2026-04-28 02:18 51.09876 -115.47389 33010 ft 496 kts 107°
2026-04-28 02:18 51.07569 -115.37054 33034 ft 495 kts 107°
2026-04-28 02:19 51.05255 -115.26743 33040 ft 495 kts 107°
2026-04-28 02:19 51.02948 -115.16498 33055 ft 496 kts 108°
2026-04-28 02:20 51.00614 -115.06197 33071 ft 495 kts 108°
2026-04-28 02:20 50.98271 -114.95899 33070 ft 496 kts 108°
2026-04-28 02:21 50.95918 -114.85602 33063 ft 497 kts 108°
2026-04-28 02:21 50.93568 -114.75378 33052 ft 497 kts 108°
2026-04-28 02:22 50.91191 -114.65089 33031 ft 497 kts 108°
2026-04-28 02:22 50.88807 -114.54811 33025 ft 497 kts 108°
2026-04-28 02:23 50.86411 -114.44534 33032 ft 497 kts 108°
2026-04-28 02:23 50.84026 -114.34354 33075 ft 497 kts 108°
2026-04-28 02:24 50.81615 -114.24110 33074 ft 497 kts 108°
2026-04-28 02:24 50.79196 -114.13881 33076 ft 497 kts 108°
2026-04-28 02:25 50.76767 -114.03658 33092 ft 497 kts 108°
2026-04-28 02:25 50.74327 -113.93437 33096 ft 498 kts 108°
2026-04-28 02:26 50.71893 -113.83285 33096 ft 498 kts 108°
2026-04-28 02:26 50.69430 -113.73066 33096 ft 499 kts 108°
2026-04-28 02:27 50.66955 -113.62842 33095 ft 499 kts 108°
2026-04-28 02:27 50.64487 -113.52694 33095 ft 499 kts 109°
2026-04-28 02:28 50.61991 -113.42483 33097 ft 499 kts 109°
2026-04-28 02:28 50.59488 -113.32287 33102 ft 500 kts 109°
2026-04-28 02:29 50.56975 -113.22096 33099 ft 499 kts 109°
2026-04-28 02:29 50.54457 -113.11931 33099 ft 499 kts 109°
2026-04-28 02:30 50.51946 -113.01840 33098 ft 499 kts 109°
2026-04-28 02:30 50.49410 -112.91699 33099 ft 498 kts 109°
2026-04-28 02:31 50.46868 -112.81579 33103 ft 498 kts 109°
2026-04-28 02:31 50.44316 -112.71463 33099 ft 499 kts 109°
2026-04-28 02:32 50.41771 -112.61422 33090 ft 499 kts 109°
2026-04-28 02:32 50.39202 -112.51329 33101 ft 498 kts 109°
2026-04-28 02:33 50.36626 -112.41253 33101 ft 498 kts 109°
2026-04-28 02:33 50.34039 -112.31183 33108 ft 498 kts 109°
2026-04-28 02:34 50.31462 -112.21192 33100 ft 498 kts 109°
2026-04-28 02:34 50.28859 -112.11149 33106 ft 499 kts 109°
2026-04-28 02:35 50.26245 -112.01105 33118 ft 499 kts 109°
2026-04-28 02:35 50.23624 -111.91078 33116 ft 499 kts 109°
2026-04-28 02:36 50.21011 -111.81125 33113 ft 499 kts 109°
2026-04-28 02:36 50.18370 -111.71110 33119 ft 499 kts 109°
2026-04-28 02:37 50.15722 -111.61113 33122 ft 499 kts 109°
2026-04-28 02:37 50.13064 -111.51120 33134 ft 499 kts 110°
2026-04-28 02:38 50.10413 -111.41194 33124 ft 499 kts 110°
2026-04-28 02:38 50.07737 -111.31213 33114 ft 499 kts 110°
2026-04-28 02:39 50.05051 -111.21248 33111 ft 499 kts 110°
2026-04-28 02:39 50.01833 -111.11651 33083 ft 502 kts 117°
2026-04-28 02:40 49.98339 -111.02346 33072 ft 502 kts 117°
2026-04-28 02:40 49.94829 -110.92983 33056 ft 502 kts 117°
2026-04-28 02:41 49.91338 -110.83609 33126 ft 502 kts 117°
2026-04-28 02:41 49.87850 -110.74239 33123 ft 502 kts 117°
2026-04-28 02:42 49.84374 -110.64933 33120 ft 502 kts 117°
2026-04-28 02:42 49.80867 -110.55585 33113 ft 502 kts 117°
2026-04-28 02:43 49.77353 -110.46255 33118 ft 502 kts 118°
2026-04-28 02:43 49.73833 -110.36942 33124 ft 501 kts 118°
2026-04-28 02:44 49.70306 -110.27644 33120 ft 501 kts 118°
2026-04-28 02:44 49.66800 -110.18431 33134 ft 501 kts 118°
2026-04-28 02:45 49.63263 -110.09172 33126 ft 501 kts 118°
2026-04-28 02:45 49.59720 -109.99931 33123 ft 500 kts 118°
2026-04-28 02:46 49.56178 -109.90722 33127 ft 499 kts 118°
2026-04-28 02:46 49.52655 -109.81596 33128 ft 499 kts 118°
2026-04-28 02:47 49.49109 -109.72441 33130 ft 498 kts 118°
2026-04-28 02:47 49.45557 -109.63303 33119 ft 498 kts 118°
2026-04-28 02:48 49.41999 -109.54185 33143 ft 498 kts 118°
2026-04-28 02:48 49.38445 -109.45101 33314 ft 502 kts 118°
2026-04-28 02:48 49.36647 -109.40520 33699 ft 500 kts 118°
2026-04-28 02:49 49.34853 -109.35960 34127 ft 498 kts 118°
2026-04-28 02:49 49.33064 -109.31417 34471 ft 497 kts 119°
2026-04-28 02:49 49.31277 -109.26890 34766 ft 496 kts 119°
2026-04-28 02:49 49.29489 -109.22365 35009 ft 497 kts 119°
2026-04-28 02:50 49.27694 -109.17828 35034 ft 500 kts 119°
2026-04-28 02:50 49.24116 -109.08810 35115 ft 497 kts 119°
2026-04-28 02:51 49.20522 -108.99786 35107 ft 496 kts 119°
2026-04-28 02:51 49.16929 -108.90794 35106 ft 495 kts 120°
2026-04-28 02:52 49.13335 -108.81827 35106 ft 495 kts 120°
2026-04-28 02:52 49.09758 -108.72933 35107 ft 495 kts 120°
2026-04-28 02:53 49.06151 -108.63992 35106 ft 495 kts 120°
2026-04-28 02:53 49.02535 -108.55054 35110 ft 496 kts 119°
2026-04-28 02:54 48.99519 -108.45653 35110 ft 493 kts 108°
2026-04-28 02:54 48.97500 -108.35767 35122 ft 493 kts 104°
2026-04-28 02:55 48.95536 -108.25761 35127 ft 494 kts 105°
2026-04-28 02:55 48.93534 -108.15753 35121 ft 495 kts 106°
2026-04-28 02:56 48.91498 -108.05736 35124 ft 496 kts 106°
2026-04-28 02:56 48.89458 -107.95781 35131 ft 497 kts 106°
2026-04-28 02:57 48.87396 -107.85762 35127 ft 497 kts 106°
2026-04-28 02:57 48.85324 -107.75744 35148 ft 497 kts 107°
2026-04-28 02:58 48.83241 -107.65732 35139 ft 497 kts 107°
2026-04-28 02:58 48.81171 -107.55797 35142 ft 497 kts 107°
2026-04-28 02:59 48.79073 -107.45793 35143 ft 498 kts 107°
2026-04-28 02:59 48.76964 -107.35794 35145 ft 498 kts 107°
2026-04-28 03:00 48.74848 -107.25809 35149 ft 498 kts 107°
2026-04-28 03:00 48.72736 -107.15895 35155 ft 498 kts 107°
2026-04-28 03:01 48.70603 -107.05924 35155 ft 498 kts 107°
2026-04-28 03:01 48.68459 -106.95951 35147 ft 498 kts 108°
2026-04-28 03:02 48.66307 -106.85988 35163 ft 498 kts 108°
2026-04-28 03:02 48.64157 -106.76089 35160 ft 499 kts 108°
2026-04-28 03:03 48.61984 -106.66125 35167 ft 499 kts 108°
2026-04-28 03:03 48.59800 -106.56162 35165 ft 500 kts 108°
2026-04-28 03:04 48.57607 -106.46206 35171 ft 500 kts 108°
2026-04-28 03:04 48.55419 -106.36319 35168 ft 500 kts 109°
2026-04-28 03:05 48.53207 -106.26370 35178 ft 500 kts 109°
2026-04-28 03:05 48.50986 -106.16431 35179 ft 500 kts 109°
2026-04-28 03:06 48.48755 -106.06492 35183 ft 500 kts 109°
2026-04-28 03:06 48.46531 -105.96631 35180 ft 500 kts 109°
2026-04-28 03:07 48.44284 -105.86712 35183 ft 500 kts 109°
2026-04-28 03:07 48.42027 -105.76797 35172 ft 501 kts 109°
2026-04-28 03:08 48.39762 -105.66895 35168 ft 501 kts 110°
2026-04-28 03:08 48.37502 -105.57059 35163 ft 501 kts 110°
2026-04-28 03:09 48.35217 -105.47160 35159 ft 501 kts 110°
2026-04-28 03:09 48.32924 -105.37269 35158 ft 501 kts 110°
2026-04-28 03:10 48.30622 -105.27390 35165 ft 501 kts 110°
2026-04-28 03:10 48.28324 -105.17570 35162 ft 501 kts 110°
2026-04-28 03:11 48.26006 -105.07706 35176 ft 501 kts 111°
2026-04-28 03:11 48.23677 -104.97845 35179 ft 502 kts 111°
2026-04-28 03:12 48.21337 -104.87981 35181 ft 502 kts 111°
2026-04-28 03:12 48.19005 -104.78197 35179 ft 502 kts 111°
2026-04-28 03:13 48.16650 -104.68358 35180 ft 502 kts 111°
2026-04-28 03:13 48.14287 -104.58528 35167 ft 502 kts 111°
2026-04-28 03:14 48.12315 -104.50359 35177 ft 502 kts 111°
2026-04-28 03:14 48.09936 -104.40543 35187 ft 502 kts 111°
2026-04-28 03:15 48.07158 -104.29137 35183 ft 503 kts 111°
2026-04-28 03:15 48.05162 -104.20974 35183 ft 503 kts 111°
2026-04-28 03:16 48.02754 -104.11165 35178 ft 503 kts 112°
2026-04-28 03:16 48.00336 -104.01362 35167 ft 503 kts 112°
2026-04-28 03:17 47.97631 -103.91761 35162 ft 501 kts 116°
2026-04-28 03:17 47.93364 -103.77605 35164 ft 501 kts 116°
2026-04-28 03:18 47.90508 -103.68121 35167 ft 501 kts 116°
2026-04-28 03:18 47.87664 -103.58650 35166 ft 501 kts 116°
2026-04-28 03:19 47.84817 -103.49188 35153 ft 501 kts 116°
2026-04-28 03:19 47.81981 -103.39801 35149 ft 500 kts 116°
2026-04-28 03:20 47.79120 -103.30370 35156 ft 500 kts 116°
2026-04-28 03:20 47.75783 -103.19416 35145 ft 501 kts 116°
2026-04-28 03:21 47.73369 -103.11525 35146 ft 500 kts 117°
2026-04-28 03:21 47.70503 -103.02187 35146 ft 500 kts 117°
2026-04-28 03:22 47.67610 -102.92796 35137 ft 500 kts 117°
2026-04-28 03:22 47.64709 -102.83414 35133 ft 500 kts 117°
2026-04-28 03:23 47.61800 -102.74040 35133 ft 500 kts 117°
2026-04-28 03:23 47.58903 -102.64740 35130 ft 501 kts 117°
2026-04-28 03:24 47.55978 -102.55384 35117 ft 501 kts 117°
2026-04-28 03:24 47.53046 -102.46041 35109 ft 501 kts 118°
2026-04-28 03:25 47.50106 -102.36710 35132 ft 500 kts 118°
2026-04-28 03:25 47.47177 -102.27449 35121 ft 501 kts 118°
2026-04-28 03:26 47.44218 -102.18123 35116 ft 501 kts 118°
2026-04-28 03:26 47.41253 -102.08811 35121 ft 501 kts 118°
2026-04-28 03:27 47.38299 -101.99573 35110 ft 501 kts 118°
2026-04-28 03:27 47.35318 -101.90279 35116 ft 501 kts 118°
2026-04-28 03:28 47.32329 -101.80998 35118 ft 501 kts 118°
2026-04-28 03:28 47.29333 -101.71727 35107 ft 501 kts 118°
2026-04-28 03:29 47.26327 -101.62460 35105 ft 501 kts 118°
2026-04-28 03:29 47.23337 -101.53273 35113 ft 501 kts 118°
2026-04-28 03:30 47.20320 -101.44038 35101 ft 500 kts 118°
2026-04-28 03:30 47.17301 -101.34829 35111 ft 500 kts 119°
2026-04-28 03:31 47.14274 -101.25631 35111 ft 500 kts 119°
2026-04-28 03:31 47.11260 -101.16505 35101 ft 500 kts 119°
2026-04-28 03:32 47.08223 -101.07337 35104 ft 499 kts 119°
2026-04-28 03:32 47.05180 -100.98189 35086 ft 499 kts 119°
2026-04-28 03:33 47.02128 -100.89043 35106 ft 499 kts 119°
2026-04-28 03:33 46.99092 -100.79980 35077 ft 499 kts 119°
2026-04-28 03:34 46.96028 -100.70861 35094 ft 499 kts 119°
2026-04-28 03:34 46.92959 -100.61760 35089 ft 499 kts 119°
2026-04-28 03:35 46.89883 -100.52673 35069 ft 498 kts 120°
2026-04-28 03:35 46.86823 -100.43662 35076 ft 498 kts 120°
2026-04-28 03:36 46.83735 -100.34602 35080 ft 498 kts 120°
2026-04-28 03:36 46.80641 -100.25552 35075 ft 498 kts 120°
2026-04-28 03:37 46.77538 -100.16510 35070 ft 498 kts 120°
2026-04-28 03:37 46.74451 -100.07544 35074 ft 498 kts 120°
2026-04-28 03:38 46.71337 -99.98532 35065 ft 498 kts 120°
2026-04-28 03:38 46.68216 -99.89530 35066 ft 498 kts 120°
2026-04-28 03:39 46.65085 -99.80533 35068 ft 498 kts 120°
2026-04-28 03:39 46.61969 -99.71603 35054 ft 498 kts 120°
2026-04-28 03:40 46.58828 -99.62634 35060 ft 497 kts 121°
2026-04-28 03:40 46.55682 -99.53685 35038 ft 497 kts 121°
2026-04-28 03:41 46.52532 -99.44750 35050 ft 497 kts 121°
2026-04-28 03:41 46.49395 -99.35884 35047 ft 497 kts 121°
2026-04-28 03:42 46.46227 -99.26961 35045 ft 497 kts 121°
2026-04-28 03:42 46.43057 -99.18060 35045 ft 497 kts 121°
2026-04-28 03:43 46.39883 -99.09178 35043 ft 496 kts 121°
2026-04-28 03:43 46.36723 -99.00366 35042 ft 496 kts 121°
2026-04-28 03:44 46.33541 -98.91522 35048 ft 495 kts 121°
2026-04-28 03:44 46.30354 -98.82691 35017 ft 495 kts 121°
2026-04-28 03:45 46.27165 -98.73884 35022 ft 494 kts 121°
2026-04-28 03:45 46.23973 -98.65097 35024 ft 494 kts 122°
2026-04-28 03:46 46.20799 -98.56390 35031 ft 493 kts 122°
2026-04-28 03:46 46.17597 -98.47634 35027 ft 493 kts 122°
2026-04-28 03:47 46.14387 -98.38884 35018 ft 494 kts 122°
2026-04-28 03:47 46.11172 -98.30149 35009 ft 493 kts 122°
2026-04-28 03:48 46.07972 -98.21481 35008 ft 493 kts 122°
2026-04-28 03:48 46.04744 -98.12765 35014 ft 493 kts 122°
2026-04-28 03:49 46.01507 -98.04049 35002 ft 494 kts 122°
2026-04-28 03:49 45.98258 -97.95341 34996 ft 494 kts 122°
2026-04-28 03:50 45.95017 -97.86701 34998 ft 494 kts 122°
2026-04-28 03:50 45.91747 -97.78009 34987 ft 494 kts 122°
2026-04-28 03:51 45.88476 -97.69336 34987 ft 494 kts 122°
2026-04-28 03:51 45.85195 -97.60664 34996 ft 495 kts 122°
2026-04-28 03:52 45.81927 -97.52052 34993 ft 495 kts 122°
2026-04-28 03:52 45.78629 -97.43387 34993 ft 495 kts 122°
2026-04-28 03:53 45.75323 -97.34729 34979 ft 496 kts 122°
2026-04-28 03:53 45.72009 -97.26079 34971 ft 496 kts 122°
2026-04-28 03:54 45.68710 -97.17496 34973 ft 496 kts 123°
2026-04-28 03:54 45.65381 -97.08860 34974 ft 496 kts 123°
2026-04-28 03:55 45.62047 -97.00237 34947 ft 496 kts 122°
2026-04-28 03:55 45.58709 -96.91633 34955 ft 495 kts 122°
2026-04-28 03:56 45.55387 -96.83097 34934 ft 495 kts 122°
2026-04-28 03:56 45.52037 -96.74514 34950 ft 495 kts 123°
2026-04-28 03:57 45.48675 -96.65929 34941 ft 496 kts 123°
2026-04-28 03:57 45.45304 -96.57348 34939 ft 497 kts 122°
2026-04-28 03:58 45.41922 -96.48764 34954 ft 497 kts 123°
2026-04-28 03:58 45.38556 -96.40246 34938 ft 498 kts 123°
2026-04-28 03:59 45.35158 -96.31675 34953 ft 498 kts 123°
2026-04-28 03:59 45.31746 -96.23095 34951 ft 499 kts 123°
2026-04-28 04:00 45.28328 -96.14525 34943 ft 499 kts 123°
2026-04-28 04:00 45.24904 -96.05967 34929 ft 498 kts 123°
2026-04-28 04:01 45.21499 -95.97482 34917 ft 498 kts 123°
2026-04-28 04:01 45.18061 -95.88942 34950 ft 499 kts 123°
2026-04-28 04:02 45.14616 -95.80413 34937 ft 499 kts 123°
2026-04-28 04:02 45.11161 -95.71883 34929 ft 499 kts 123°
2026-04-28 04:03 45.07723 -95.63420 34904 ft 499 kts 123°
2026-04-28 04:03 45.04262 -95.54926 34879 ft 498 kts 123°
2026-04-28 04:04 45.00794 -95.46443 34883 ft 499 kts 123°
2026-04-28 04:04 44.97316 -95.37961 34909 ft 499 kts 123°
2026-04-28 04:05 44.93856 -95.29544 34883 ft 499 kts 123°
2026-04-28 04:05 44.90367 -95.21084 34880 ft 499 kts 123°
2026-04-28 04:06 44.86872 -95.12637 34864 ft 499 kts 123°
2026-04-28 04:06 44.83371 -95.04199 34880 ft 499 kts 123°
2026-04-28 04:07 44.79863 -94.95769 34881 ft 499 kts 123°
2026-04-28 04:07 44.76371 -94.87404 34875 ft 499 kts 123°
2026-04-28 04:08 44.72847 -94.78987 34873 ft 499 kts 123°
2026-04-28 04:08 44.69316 -94.70578 34857 ft 500 kts 123°
2026-04-28 04:09 44.65777 -94.62174 34845 ft 500 kts 124°
2026-04-28 04:09 44.62258 -94.53842 34832 ft 500 kts 124°
2026-04-28 04:10 44.58701 -94.45445 34838 ft 500 kts 124°
2026-04-28 04:10 44.55142 -94.37068 34829 ft 500 kts 124°
2026-04-28 04:11 44.51575 -94.28697 34821 ft 500 kts 124°
2026-04-28 04:11 44.48023 -94.20386 34822 ft 501 kts 124°
2026-04-28 04:12 44.44439 -94.12024 34821 ft 501 kts 124°
2026-04-28 04:12 44.40851 -94.03678 34811 ft 501 kts 124°
2026-04-28 04:13 44.37252 -93.95330 34806 ft 501 kts 124°
2026-04-28 04:13 44.33648 -93.86995 34795 ft 502 kts 124°
2026-04-28 04:14 44.30056 -93.78712 34789 ft 502 kts 124°
2026-04-28 04:14 44.26436 -93.70389 34816 ft 502 kts 124°
2026-04-28 04:15 44.22807 -93.62068 34821 ft 502 kts 124°
2026-04-28 04:16 44.17349 -93.49599 34845 ft 502 kts 124°
2026-04-28 04:16 44.13724 -93.41349 34795 ft 503 kts 125°
2026-04-28 04:17 44.10065 -93.33045 34786 ft 504 kts 125°
2026-04-28 04:17 44.06396 -93.24741 34791 ft 504 kts 125°
2026-04-28 04:18 44.02719 -93.16445 34787 ft 504 kts 125°
2026-04-28 04:18 43.99060 -93.08210 34763 ft 504 kts 125°
2026-04-28 04:19 43.95367 -92.99925 34755 ft 504 kts 125°
2026-04-28 04:19 43.91669 -92.91651 34755 ft 505 kts 125°
2026-04-28 04:20 43.87964 -92.83386 34759 ft 505 kts 125°
2026-04-28 04:20 43.84271 -92.75170 34764 ft 505 kts 125°
2026-04-28 04:21 43.80548 -92.66910 34756 ft 506 kts 126°
2026-04-28 04:21 43.76820 -92.58662 34757 ft 505 kts 126°
2026-04-28 04:22 43.73087 -92.50429 34761 ft 505 kts 126°
2026-04-28 04:22 43.69370 -92.42253 34761 ft 506 kts 126°
2026-04-28 04:23 43.65624 -92.34036 34763 ft 506 kts 126°
2026-04-28 04:23 43.61872 -92.25826 34760 ft 505 kts 126°
2026-04-28 04:24 43.58115 -92.17631 34726 ft 505 kts 126°
2026-04-28 04:24 43.54355 -92.09450 34729 ft 505 kts 126°
2026-04-28 04:25 43.50612 -92.01327 34728 ft 506 kts 126°
2026-04-28 04:25 43.46903 -91.93071 34724 ft 507 kts 125°
2026-04-28 04:26 43.43297 -91.84729 34752 ft 507 kts 124°
2026-04-28 04:26 43.39690 -91.76395 34745 ft 507 kts 125°
2026-04-28 04:27 43.36087 -91.68148 34765 ft 507 kts 125°
2026-04-28 04:27 43.32443 -91.59862 34762 ft 507 kts 125°
2026-04-28 04:28 43.28788 -91.51578 34738 ft 507 kts 126°
2026-04-28 04:28 43.25134 -91.43317 34741 ft 506 kts 126°
2026-04-28 04:29 43.21505 -91.35131 34719 ft 505 kts 126°
2026-04-28 04:29 43.17850 -91.26913 34761 ft 505 kts 126°
2026-04-28 04:30 43.14186 -91.18697 34774 ft 505 kts 126°
2026-04-28 04:30 43.10517 -91.10492 34769 ft 505 kts 127°
2026-04-28 04:31 43.06842 -91.02298 34776 ft 505 kts 127°
2026-04-28 04:31 43.03189 -90.94175 34770 ft 505 kts 127°
2026-04-28 04:32 42.99511 -90.86016 34719 ft 504 kts 127°
2026-04-28 04:32 42.95827 -90.77869 34727 ft 504 kts 127°
2026-04-28 04:33 42.92145 -90.69750 34720 ft 503 kts 127°
2026-04-28 04:33 42.88489 -90.61708 34737 ft 502 kts 127°
2026-04-28 04:34 42.84807 -90.53634 34742 ft 501 kts 127°
2026-04-28 04:34 42.81121 -90.45571 34750 ft 501 kts 127°
2026-04-28 04:35 42.77459 -90.37581 34740 ft 501 kts 128°
2026-04-28 04:35 42.73777 -90.29569 34748 ft 498 kts 128°
2026-04-28 04:36 42.70100 -90.21590 34740 ft 497 kts 128°
2026-04-28 04:36 42.66431 -90.13652 34722 ft 495 kts 128°
2026-04-28 04:37 42.62788 -90.05791 34706 ft 495 kts 128°
2026-04-28 04:37 42.59120 -89.97896 34714 ft 496 kts 128°
2026-04-28 04:38 42.55396 -89.89913 34720 ft 505 kts 128°
2026-04-28 04:38 42.51631 -89.81854 34721 ft 506 kts 128°
2026-04-28 04:39 42.47888 -89.73854 34719 ft 506 kts 128°
2026-04-28 04:39 42.44115 -89.65814 34720 ft 505 kts 128°
2026-04-28 04:40 42.40341 -89.57798 34722 ft 505 kts 129°
2026-04-28 04:40 42.36564 -89.49800 34746 ft 504 kts 129°
2026-04-28 04:41 42.32786 -89.41821 34754 ft 504 kts 129°
2026-04-28 04:41 42.29024 -89.33894 34754 ft 504 kts 129°
2026-04-28 04:42 42.25230 -89.25923 34738 ft 505 kts 129°
2026-04-28 04:42 42.21429 -89.17956 34735 ft 504 kts 129°
2026-04-28 04:43 42.17634 -89.10022 34721 ft 502 kts 130°
2026-04-28 04:43 42.13867 -89.02171 34729 ft 502 kts 130°
2026-04-28 04:44 42.10065 -88.94267 34739 ft 503 kts 130°
2026-04-28 04:44 42.06258 -88.86372 34759 ft 503 kts 130°
2026-04-28 04:45 42.02475 -88.78546 34757 ft 501 kts 130°
2026-04-28 04:45 41.98681 -88.70716 34762 ft 499 kts 130°
2026-04-28 04:46 41.94893 -88.62921 34775 ft 497 kts 131°
2026-04-28 04:46 41.91105 -88.55149 34768 ft 497 kts 131°
2026-04-28 04:47 41.87306 -88.47376 34754 ft 498 kts 131°
2026-04-28 04:47 41.83545 -88.39690 34738 ft 495 kts 131°
2026-04-28 04:48 41.79772 -88.32004 34744 ft 492 kts 132°
2026-04-28 04:48 41.76013 -88.24367 34710 ft 490 kts 132°
2026-04-28 04:49 41.72260 -88.16761 34731 ft 489 kts 132°
2026-04-28 04:49 41.68523 -88.09207 34758 ft 490 kts 132°
2026-04-28 04:50 41.64288 -88.02413 34771 ft 459 kts 153°
2026-04-28 04:50 41.61548 -88.00412 34755 ft 440 kts 169°
2026-04-28 04:50 41.58657 -87.99225 34776 ft 437 kts 170°
2026-04-28 04:51 41.52798 -87.96627 34742 ft 448 kts 168°
2026-04-28 04:51 41.46948 -87.93880 34744 ft 450 kts 168°
2026-04-28 04:52 41.41038 -87.91106 34751 ft 450 kts 168°
2026-04-28 04:52 41.35125 -87.88354 34758 ft 450 kts 168°
2026-04-28 04:53 41.29241 -87.85625 34749 ft 443 kts 169°
2026-04-28 04:53 41.23499 -87.82969 34771 ft 439 kts 169°
2026-04-28 04:54 41.17728 -87.80313 34787 ft 439 kts 169°
2026-04-28 04:54 41.11945 -87.77655 34785 ft 440 kts 169°
2026-04-28 04:54 41.09041 -87.76322 34497 ft 445 kts 169°
2026-04-28 04:55 41.06075 -87.74968 33717 ft 454 kts 169°
2026-04-28 04:55 41.03090 -87.73599 32840 ft 454 kts 169°
2026-04-28 04:55 41.00150 -87.72247 31997 ft 453 kts 170°
2026-04-28 04:55 40.97175 -87.70879 31102 ft 453 kts 170°
2026-04-28 04:56 40.94193 -87.69511 30337 ft 452 kts 170°
2026-04-28 04:56 40.91245 -87.68158 29746 ft 447 kts 171°
2026-04-28 04:56 40.88320 -87.66820 29019 ft 442 kts 171°
2026-04-28 04:56 40.85430 -87.65500 28423 ft 437 kts 171°
2026-04-28 04:57 40.82572 -87.64196 27866 ft 432 kts 171°
2026-04-28 04:57 40.79737 -87.62905 27292 ft 428 kts 172°
2026-04-28 04:57 40.76938 -87.61632 26967 ft 420 kts 172°
2026-04-28 04:57 40.74196 -87.60390 26968 ft 428 kts 172°
2026-04-28 04:58 40.71337 -87.59108 26992 ft 439 kts 172°
2026-04-28 04:58 40.68428 -87.57792 26973 ft 444 kts 171°
2026-04-28 04:58 40.65511 -87.56462 26972 ft 444 kts 171°
2026-04-28 04:58 40.62597 -87.55136 26975 ft 443 kts 171°
2026-04-28 04:59 40.59683 -87.53814 26987 ft 442 kts 172°
2026-04-28 04:59 40.56800 -87.52417 26821 ft 438 kts 167°
2026-04-28 04:59 40.54128 -87.50513 25889 ft 438 kts 158°
2026-04-28 04:59 40.51757 -87.48049 24742 ft 444 kts 148°
2026-04-28 05:00 40.49588 -87.45125 23376 ft 451 kts 143°
2026-04-28 05:00 40.47551 -87.41947 21785 ft 458 kts 138°
2026-04-28 05:00 40.45717 -87.38505 20327 ft 465 kts 128°
2026-04-28 05:00 40.44299 -87.34704 19407 ft 457 kts 122°
2026-04-28 05:01 40.42872 -87.30991 18675 ft 456 kts 128°
2026-04-28 05:01 40.41200 -87.27466 18330 ft 456 kts 133°
2026-04-28 05:01 40.39328 -87.24103 18339 ft 455 kts 136°
2026-04-28 05:01 40.37391 -87.20879 17960 ft 445 kts 137°
2026-04-28 05:02 40.35459 -87.17797 17516 ft 442 kts 138°
2026-04-28 05:02 40.33500 -87.14712 17013 ft 438 kts 137°
2026-04-28 05:02 40.31562 -87.11655 16538 ft 434 kts 137°
2026-04-28 05:02 40.29655 -87.08630 16046 ft 429 kts 136°
2026-04-28 05:03 40.27765 -87.05616 15575 ft 425 kts 136°
2026-04-28 05:03 40.25898 -87.02634 15096 ft 422 kts 136°
2026-04-28 05:03 40.24047 -86.99675 14630 ft 418 kts 135°
2026-04-28 05:03 40.22211 -86.96740 14163 ft 415 kts 135°
2026-04-28 05:04 40.20389 -86.93831 13639 ft 412 kts 136°
2026-04-28 05:04 40.18600 -86.90978 13155 ft 409 kts 136°
2026-04-28 05:04 40.16804 -86.88115 12667 ft 405 kts 136°
2026-04-28 05:04 40.14971 -86.85351 12202 ft 399 kts 139°
2026-04-28 05:05 40.13067 -86.82744 11748 ft 394 kts 141°
2026-04-28 05:05 40.11159 -86.80196 11285 ft 391 kts 141°
2026-04-28 05:05 40.09280 -86.77664 10946 ft 385 kts 140°
2026-04-28 05:05 40.07459 -86.75175 10797 ft 373 kts 140°
2026-04-28 05:06 40.05701 -86.72758 10653 ft 362 kts 140°
2026-04-28 05:06 40.04017 -86.70447 10504 ft 351 kts 140°
2026-04-28 05:06 40.02360 -86.68176 10364 ft 340 kts 140°
2026-04-28 05:06 40.00752 -86.65972 10208 ft 330 kts 140°
2026-04-28 05:07 39.99196 -86.63843 10086 ft 319 kts 141°
2026-04-28 05:07 39.97692 -86.61784 9955 ft 308 kts 141°
2026-04-28 05:07 39.96228 -86.59764 9656 ft 306 kts 140°
2026-04-28 05:07 39.94784 -86.57753 9316 ft 302 kts 140°
2026-04-28 05:08 39.93360 -86.55764 8977 ft 299 kts 139°
2026-04-28 05:08 39.91940 -86.53782 8685 ft 300 kts 139°
2026-04-28 05:08 39.90532 -86.51822 8382 ft 301 kts 139°
2026-04-28 05:08 39.89100 -86.49834 8063 ft 300 kts 139°
2026-04-28 05:09 39.87679 -86.47856 7744 ft 298 kts 138°
2026-04-28 05:09 39.86278 -86.45891 7427 ft 294 kts 139°
2026-04-28 05:09 39.84878 -86.43980 7094 ft 290 kts 140°
2026-04-28 05:09 39.83471 -86.42129 6780 ft 285 kts 140°
2026-04-28 05:10 39.82086 -86.40308 6484 ft 281 kts 140°
2026-04-28 05:10 39.80870 -86.38368 6170 ft 277 kts 118°
2026-04-28 05:10 39.80469 -86.35990 5913 ft 273 kts 86°
2026-04-28 05:10 39.80946 -86.33677 5720 ft 262 kts 60°
2026-04-28 05:11 39.81978 -86.31776 5538 ft 255 kts 42°
2026-04-28 05:11 39.83228 -86.30148 5383 ft 255 kts 39°
2026-04-28 05:11 39.84506 -86.28541 5205 ft 256 kts 39°
2026-04-28 05:11 39.85768 -86.26935 5091 ft 254 kts 40°
2026-04-28 05:12 39.87058 -86.25327 4874 ft 258 kts 38°
2026-04-28 05:12 39.88395 -86.23773 4714 ft 257 kts 37°
2026-04-28 05:12 39.89730 -86.22246 4603 ft 253 kts 36°
2026-04-28 05:12 39.91028 -86.20779 4568 ft 247 kts 35°
2026-04-28 05:13 39.92338 -86.19328 4567 ft 249 kts 36°
2026-04-28 05:13 39.93660 -86.17824 4536 ft 257 kts 38°
2026-04-28 05:13 39.94971 -86.16224 4474 ft 258 kts 40°
2026-04-28 05:13 39.96171 -86.14517 4455 ft 256 kts 58°
2026-04-28 05:14 39.96662 -86.12331 4489 ft 253 kts 94°
2026-04-28 05:14 39.96219 -86.10156 4489 ft 249 kts 128°
2026-04-28 05:14 39.95036 -86.08604 4470 ft 239 kts 155°
2026-04-28 05:14 39.93601 -86.07685 4425 ft 226 kts 168°
2026-04-28 05:15 39.92131 -86.07216 4347 ft 210 kts 182°
2026-04-28 05:15 39.90714 -86.07294 4040 ft 202 kts 197°
2026-04-28 05:15 39.89377 -86.07796 3530 ft 199 kts 206°
2026-04-28 05:15 39.88146 -86.08571 3111 ft 192 kts 213°
2026-04-28 05:16 39.87056 -86.09442 2917 ft 175 kts 216°
2026-04-28 05:16 39.86093 -86.10372 2921 ft 174 kts 218°
2026-04-28 05:16 39.85128 -86.11330 2907 ft 173 kts 220°
2026-04-28 05:17 39.83356 -86.13395 2902 ft 169 kts 225°
2026-04-28 05:17 39.82521 -86.14452 2916 ft 171 kts 224°
2026-04-28 05:17 39.81673 -86.15536 2915 ft 171 kts 225°
2026-04-28 05:17 39.80823 -86.16624 2926 ft 172 kts 225°
2026-04-28 05:18 39.79969 -86.17720 2925 ft 172 kts 225°
2026-04-28 05:18 39.79148 -86.18773 2793 ft 159 kts 225°
2026-04-28 05:18 39.78415 -86.19714 2589 ft 136 kts 224°
2026-04-28 05:18 39.77793 -86.20510 2424 ft 119 kts 225°
2026-04-28 05:19 39.77202 -86.21266 2276 ft 121 kts 225°
2026-04-28 05:19 39.76600 -86.22040 2113 ft 126 kts 224°
2026-04-28 05:19 39.75978 -86.22836 1948 ft 126 kts 222°
2026-04-28 05:19 39.75339 -86.23652 1774 ft 132 kts 222°
2026-04-28 05:20 39.74670 -86.24493 1613 ft 134 kts 220°
2026-04-28 05:20 39.74001 -86.25363 1355 ft 139 kts 225°
2026-04-28 05:20 39.73323 -86.26300 1182 ft 148 kts 217°
2026-04-28 05:20 39.72543 -86.27224 988 ft 156 kts 222°
2026-04-28 05:21 39.71793 -86.28182 807 ft 150 kts 223°
2026-04-28 05:21 39.71105 -86.29065 786 ft 119 kts 225°
2026-04-28 05:21 39.70643 -86.29645 789 ft 66 kts 224°
2026-04-28 05:21 39.70398 -86.29957 788 ft 44 kts 224°
2026-04-28 05:22 39.70200 -86.30220 785 ft 37 kts 223°
2026-04-28 05:22 39.70074 -86.30329 787 ft 9 kts 160°
2026-04-28 05:22 39.70026 -86.30276 790 ft 9 kts 136°
2026-04-28 05:22 39.69989 -86.30212 792 ft 9 kts 110°
2026-04-28 05:23 39.70019 -86.30145 792 ft 9 kts 45°
2026-04-28 05:23 39.70064 -86.30088 792 ft 9 kts 43°
2026-04-28 05:23 39.70107 -86.30035 792 ft 9 kts 43°
2026-04-28 05:23 39.70154 -86.29976 792 ft 9 kts 44°
2026-04-28 05:24 39.70199 -86.29920 792 ft 9 kts 44°
2026-04-28 05:24 39.70244 -86.29863 792 ft 9 kts 44°
2026-04-28 05:24 39.70290 -86.29807 792 ft 9 kts 43°
2026-04-28 05:24 39.70335 -86.29751 792 ft 9 kts 43°
2026-04-28 05:25 39.70381 -86.29696 792 ft 9 kts 43°
2026-04-28 05:25 39.70425 -86.29637 792 ft 9 kts 46°
2026-04-28 05:25 39.70469 -86.29579 793 ft 9 kts 46°
2026-04-28 05:25 39.70515 -86.29525 792 ft 9 kts 38°
2026-04-28 05:26 39.70572 -86.29494 791 ft 9 kts 17°
2026-04-28 05:26 39.70629 -86.29460 790 ft 9 kts 27°
2026-04-28 05:26 39.70683 -86.29420 790 ft 9 kts 45°
2026-04-28 05:26 39.70726 -86.29360 789 ft 9 kts 41°
2026-04-28 05:27 39.70771 -86.29305 787 ft 9 kts 50°
2026-04-28 05:27 39.70812 -86.29242 786 ft 9 kts 48°
2026-04-28 05:27 39.70855 -86.29183 787 ft 9 kts 45°
2026-04-28 05:27 39.70900 -86.29126 788 ft 9 kts 44°
2026-04-28 05:28 39.70945 -86.29069 788 ft 9 kts 45°
2026-04-28 05:28 39.70989 -86.29012 788 ft 9 kts 45°
2026-04-28 05:28 39.71034 -86.28955 789 ft 9 kts 45°
2026-04-28 05:28 39.71088 -86.28886 791 ft 17 kts 44°
2026-04-28 05:29 39.71182 -86.28766 791 ft 19 kts 45°
2026-04-28 05:29 39.71278 -86.28646 792 ft 19 kts 43°
2026-04-28 05:29 39.71374 -86.28524 789 ft 20 kts 44°
2026-04-28 05:29 39.71450 -86.28427 788 ft 9 kts 44°
2026-04-28 05:30 39.71490 -86.28376 788 ft 8 kts 45°
2026-04-28 05:30 39.71535 -86.28318 787 ft 10 kts 45°
2026-04-28 05:30 39.71585 -86.28244 786 ft 11 kts 55°
2026-04-28 05:30 39.71618 -86.28152 788 ft 11 kts 68°
2026-04-28 05:31 39.71658 -86.28063 789 ft 11 kts 49°
2026-04-28 05:31 39.71712 -86.27989 789 ft 11 kts 44°
2026-04-28 05:31 39.71770 -86.27918 790 ft 11 kts 43°
2026-04-28 05:31 39.71827 -86.27847 792 ft 11 kts 45°
2026-04-28 05:32 39.71883 -86.27774 791 ft 11 kts 44°
2026-04-28 05:32 39.71940 -86.27703 791 ft 11 kts 44°
2026-04-28 05:32 39.71996 -86.27632 792 ft 11 kts 44°
2026-04-28 05:32 39.72052 -86.27560 792 ft 11 kts 45°
2026-04-28 05:33 39.72047 -86.27463 789 ft 12 kts 129°
2026-04-28 05:33 39.71988 -86.27382 791 ft 12 kts 136°
2026-04-28 05:33 39.71928 -86.27302 788 ft 12 kts 134°
2026-04-28 05:33 39.71864 -86.27223 786 ft 13 kts 143°
2026-04-28 05:34 39.71797 -86.27240 789 ft 11 kts 225°
2026-04-28 05:34 39.71771 -86.27276 791 ft 0 kts 223°
2026-04-28 05:34 39.71770 -86.27276 791 ft 0 kts 223°
2026-04-28 05:35 39.71754 -86.27295 791 ft 4 kts 223°
2026-04-28 05:35 39.71734 -86.27321 792 ft 4 kts 224°
2026-04-28 05:35 39.71720 -86.27352 793 ft 4 kts 270°
2026-04-28 05:35 39.71736 -86.27384 793 ft 4 kts 311°
2026-04-28 05:36 39.71749 -86.27401 793 ft 1 kts 314°
2026-04-28 05:36 39.71752 -86.27405 793 ft 0 kts 314°